Daftar Jamaah Haji Kab. Kediri 2023
Daftar Jamaah Haji Kab. Kediri 2023
122 1300522002 DEWI MARIYAM 14/11/1950 DSN CANGKRING RT.003 RW.007 KAB. K E D I R I
123 1300522020 SITI ASIYAH 03/05/1955 DSN NGLEREP WETAN RT.002 RW.004 KAB. K E D I R I
124 1300522021 SUHADI 21/04/1953 DSN NGLEREP WETAN RT.002 RW.004 KAB. K E D I R I
125 1300522386 SAIFUDDIN ZUHRI. 30/11/1954 DSN NGADILUWIH RT.002 RW.002 KAB. K E D I R I
126 1300522450 INDRA JATMIKO 31/01/1982 JL. RINJANI RT.002 RW.000 KAB. K E D I R I
127 1300522454 IFANA ANUGRAHENI 28/03/1983 JL. RINJANI RT.002 RW.000 KAB. K E D I R I
128 1300522566 RAMIDI 13/05/1948 JL. KELANA RT.004 RW.001 KAB. K E D I R I
129 1300522579 KAMSINI 07/02/1955 DSN POJOK RT.001 RW.002 KAB. K E D I R I
130 1300522741 SYAIFUDIN ZUHRI 01/07/1944 DSN. SANTREN KIDUL RT 09 RW 03 KAB. K E D I R I
131 1300523016 MUSANGADAH 10/02/1963 SUSUHBANGO SELATAN RT.002 RW.001 KAB. K E D I R I
132 1300523022 INTAN ROSHANTI 15/05/2000 SUSUHBANGO SELATAN RT.002 RW.001 KAB. K E D I R I
133 1300523053 BINTI ZUNAIDA 29/08/1981 DSN. JONGBIRU RT 007 RW 002 KAB. K E D I R I
134 1300523054 SITI KHOIRIYAH 01/07/1955 DSN. JONGBIRU RT 007 RW 002 KAB. K E D I R I
135 1300523533 WARIS 15/09/1950 JLN. HASANUDDIN RT.004 RW.002 KAB. K E D I R I
136 1300523536 AHMAD 10/01/1957 DSN KEJURON RT.007 RW.002 KAB. K E D I R I
137 1300523777 UMI KULSUM 06/12/1957 DSN. SUMBERTOWO RT 002 RW 003 KAB. K E D I R I
138 1300523778 MUSANI 14/08/1952 DSN. SUMBERTOWO RT 002 RW 003 KAB. K E D I R I
139 1300523874 SUYADI 06/08/1948 DS. DOKO RT.028 RW.005 KAB. K E D I R I
140 1300523875 MUSIYAM 01/07/1954 DSN SUMBER RT.028 RW.005 KAB. K E D I R I
141 1300524100 MOHRODJI 03/12/1946 DUSUN JOHO RT.004 RW.001 KAB. K E D I R I
142 1300524152 SITI MUSLIKAH 01/07/1953 DSN GONDANG RT.003 RW.002 KAB. K E D I R I
143 1300524300 MUNTAHAR 06/07/1949 DSN MANUKAN RT.001 RW.007 KAB. K E D I R I
144 1300524306 SUMIATI 07/05/1955 DSN MANUKAN RT.001 RW.007 KAB. K E D I R I
145 1300524466 CHUSUSIYAH 06/10/1952 [Link] DN. GABRU RT.001 RW.001 KAB. K E D I R I
146 1300524817 ASRI 01/07/1955 DK JATI MALANG RT.001 RW.009 KAB. K E D I R I
147 1300525040 YAHMIN 01/07/1952 DAMPIT RT.001 RW.002 KAB. K E D I R I
148 1300525223 PIATIN 04/03/1948 DSN JATI RT.004 RW.003 KAB. K E D I R I
149 1300525359 RAMADON 13/02/1931 DSN TEMPURSARI RT.01 RW.07 KAB. K E D I R I
150 1300525370 SHOLIHAH 07/02/1955 DSN SUKOHARJO RT.001 RW.004 KAB. K E D I R I
151 1300525449 PUJIATUN 01/01/1952 DSN BENDOREJO RT.003 RW.016 KAB. K E D I R I
152 1300525605 KAMSINI 10/02/1956 SEMEN RT.003 RW.003 KAB. K E D I R I
153 1300525606 SITI MUQADDIMAH 04/05/1973 SEMEN RT.003 RW.003 KAB. K E D I R I
154 1300526054 SUKARMI 03/05/1956 DSN. GONDANG RT 005 RW 001 KAB. K E D I R I
155 1300526196 SHOLEKAN SE 20/05/1961 DSN. NOLOSUTO RT 002 RW 005 KAB. K E D I R I
156 1300526198 SUSRIATI ENDANG PURWANINGSIH 03/01/1963 DSN. NOLOSUTO RT 002 RW 005 KAB. K E D I R I
157 1300526199 M. SUCIPTO 10/02/1971 DSN. KENCONG BARAT RT 016 RW 003 KAB. K E D I R I
158 1300526200 ENDAH SUSANTI 07/04/1975 DSN. JL. KANDANGAN RT 016 RW 003 KAB. K E D I R I
159 1300526491 DRS. H. MOCH. KHAMIM 27/07/1965 JL. HOS COKROAMINOTO RT.008 RW.008 KAB. K E D I R I
160 1300526523 MOHAMAD MOHAIMIN 22/02/1968 DSN SUMBERASRI RT.003 RW.001 KAB. K E D I R I
161 1300526575 AISAH 01/07/1947 DSN NGADILUWIH RT.005 RW.003 KAB. K E D I R I
162 1300526841 ABDUROCHIM 08/11/1958 DSN KLAMPISAN RT.001 RW.001 KAB. K E D I R I
163 1300526843 SUKARMI 21/12/1954 JL. MAS NO.15 RT.002 RW.003 KAB. K E D I R I
164 1300526845 SAMI KUSMIATI 12/03/1957 JL. KERTAJAYA RT.001 RW.010 KAB. K E D I R I
165 1300526946 SITI FATIMAH 17/08/1952 CENDONO RT.012 RW.004 KAB. K E D I R I
166 1300527266 ANA AZIZAH 11/01/1984 JL. BRAWIJAYA RT.002 RW.009 KAB. K E D I R I
167 1300527925 NUR MUSHOLIKAH 05/08/1962 JL. DANDANG GENDIS RT.041 RW.007 KAB. K E D I R I
168 1300527934 IMAM SUHADI 14/10/1954 JL. DANDANG GENDIS RT.041 RW.007 KAB. K E D I R I
169 1300527953 MAHBUB KHOIRUN NAJAD 06/03/1993 DSN SUMOROTO RT.001 RW.003 KAB. K E D I R I
170 1300527954 MARIYAM SUNDARI 06/01/1969 DSN SUMOROTO RT.001 RW.003 KAB. K E D I R I
171 1300528368 MUDHOFIR 10/07/1970 JLN RAJAWALI RT.004 RW.005 KAB. K E D I R I
172 1300528526 MOHAMAD MANSUR 14/10/1972 DSN MANYARAN RT.002 RW.001 KAB. K E D I R I
173 1300528643 MARIEM 01/08/1954 DS. TUNGE RT.032 RW.005 KAB. K E D I R I
174 1300528645 SRI WINARTI 01/07/1969 DSN JAMBU RT.009 RW.002 KAB. K E D I R I
175 1300528646 MURTAJI 19/05/1967 DSN JAMBU RT.009 RW.002 KAB. K E D I R I
176 1300528795 SITI ASIYAH 12/11/1956 SUKOREJO INDAH H-7 RT.001 RW.009 KAB. K E D I R I
177 1300528796 NUR ROQIB ZE 20/12/1954 PERUM SUKOREJO INDAH H-7 RT.001 RW.009 KAB. K E D I R I
178 1300528852 SAMSUHADI 11/08/1962 DSN SARASEHAN RT.003 RW.001 KAB. K E D I R I
179 1300529137 SITI NGAISAH 31/12/1951 DSN MIPITAN RT.003 RW.005 KAB. K E D I R I
180 1300529293 PURNANTO HENDRO SUSANTO 10/04/1954 JL. PAMENANG NO.31C RT.001 RW.007 KAB. K E D I R I
181 1300529337 MUH DAWAM 01/06/1954 DS. NGASEM RT.002 RW.002 KAB. K E D I R I
182 1300529635 SAMSUDIN 01/07/1945 JATI MALANG RT.01 RW.10 KAB. K E D I R I
183 1300529824 SUHARTOYO 22/12/1951 JL. KACAPIRING BLOK D6 RT.014 RW.021 KAB. K E D I R I
184 1300529831 SUWARSI 10/03/1960 JL. KACAPIRING BLOK D6 RT.014 RW.021 KAB. K E D I R I
185 1300529961 SUPIJATUN 01/01/1940 DAYU RT.002 RW.001 KAB. K E D I R I
186 1300530015 KARTINI 01/07/1955 DSN DOROK RT.003 RW.001 KAB. K E D I R I
187 1300530017 H. MARJONO 06/03/1953 DSN DOROK RT.003 RW.001 KAB. K E D I R I
188 1300530653 MUSLIH 24/04/1957 KAUMAN RT.006 RW.003 KAB. K E D I R I
189 1300530654 SITI NAFI'AH 05/12/1967 KAUMAN RT.006 RW.003 KAB. K E D I R I
190 1300530699 MARSITEN 12/12/1945 DSN BESUK RT.002 RW.009 KAB. K E D I R I
191 1300530705 MAHMUD 20/01/1952 DSN NGRECO RT.003 RW.001 KAB. K E D I R I
192 1300531113 BANDIYAH 09/05/1953 DSN BESI RT.001 RW.001 KAB. K E D I R I
193 1300531411 SITI INGANAH 01/07/1955 DSN. SLUMBUNG RT 002 RW 001 KAB. K E D I R I
194 1300531503 SIRODJUL MUNIR, [Link].I 18/05/1961 DSN JABANG RT.001 RW.007 KAB. K E D I R I
195 1300531572 SUPARMI 16/08/1960 JLN. KEMBANGSORE RT 003 RW 001 KAB. K E D I R I
196 1300531673 SRI HASTUTI 23/03/1948 [Link] WAYANG III NO.21 LK III RT01RW02 KAB. K E D I R I
197 1300531724 MUJI 07/02/1949 DSN PESANTREN RT.004 RW.002 KAB. K E D I R I
198 1300531931 RUMIATI 20/05/1955 DSN POPONGAN RT.003 RW.004 KAB. K E D I R I
199 1300531970 SUMINEM 31/12/1950 DSN JOHO RT.005 RW.002 KAB. K E D I R I
200 1300532200 MOHAMMAD BADRUN 17/07/1947 JL. KUTILANG RT.002 RW.001 KAB. K E D I R I
201 1300532270 SURAT AFANDI 31/05/1951 DSN BUTUH RT.003 RW.001 KAB. K E D I R I
202 1300532271 AMIATUN 18/11/1960 DSN BUTUH RT.004 RW.001 KAB. K E D I R I
203 1300532796 SITI MAHMUDAH 08/05/1978 DSN SUROWONO RT.001 RW.023 KAB. K E D I R I
204 1300533100 ABDUL UMAR, [Link] 12/06/1956 DNS. GEMENGGENG RT 014 RW 006 KAB. K E D I R I
205 1300533145 UMI NAHARIYAH 09/08/1961 DSN. WONORENGGO RT 002 RW 009 KAB. K E D I R I
206 1300533147 ARIFIN TABASA AS ARI 10/05/1957 DSN. WONORENGGO RT 002 RW 006 KAB. K E D I R I
207 1300533359 KATIJAH 15/06/1956 DSN SAMBIREJO RT.002 RW.002 KAB. K E D I R I
208 1300533450 ELLY RIATININGSIH 27/11/1970 DUSUN JOHO RT.008 RW.002 KAB. K E D I R I
209 1300533474 NUR SOCHIB 25/02/1957 DSN MANGIRAN RT.002 RW.007 KAB. K E D I R I
210 1300533475 MARGIATI 07/05/1963 DSN MANGIRAN RT.002 RW.007 KAB. K E D I R I
211 1300533908 KARMUJI 16/08/1956 BESUK RT.006 RW.002 KAB. K E D I R I
212 1300534009 PONISIH 03/06/1955 JL. GATOTKOCO DULURAN RT.004 RW.012 KAB. K E D I R I
213 1300534097 SAMINI 01/07/1950 JL. RAYA RT.001 RW.004 KAB. K E D I R I
214 1300534112 MURSIATI 01/04/1956 DSN MOJOSARI RT.001 RW.002 KAB. K E D I R I
215 1300534228 RIFA'AH 16/03/1954 DSN SELODONO RT.021 RW.006 KAB. K E D I R I
216 1300534325 SUWARSIH 11/12/1955 DSN KASEMBON RT.001 RW.001 KAB. K E D I R I
217 1300534326 SUWARNING 01/07/1955 KUWIK RT.005 RW.001 KAB. K E D I R I
218 1300534372 H. JAMBURI 01/05/1955 DSN BOGOR PRADAH RT.001 RW.005 KAB. K E D I R I
219 1300534373 RUKINEM 01/01/1966 DSN PUCANGANOM RT.018 RW.005 KAB. K E D I R I
220 1300535459 BUDAIRI HAFIF 12/12/1955 DSN KAUMAN RT.006 RW.003 KAB. K E D I R I
221 1300535461 SYARIATUL MUSLIHAH 10/05/1965 DSN KAUMAN RT.006 RW.003 KAB. K E D I R I
222 1300535495 SLAMET 13/12/1950 JL. PARE WATES RT.001 RW.002 KAB. K E D I R I
223 1300535560 IMAM ROZIKIN 20/12/1967 JL. SUMATRA RT.001 RW.004 KAB. K E D I R I
224 1300535718 FATMAWATI 01/08/1962 JL. SULAWESI G16 PUTIH PERMAI RT.4 RW.5 KAB. K E D I R I
225 1300535722 JOKO BAKHTIAR, SE 29/03/1956 JL. SULAWESI G16 PUTIH PERMAI RT.4 RW.5 KAB. K E D I R I
226 1300536019 MARIATUN 05/06/1950 DSN. BATUASRI RT 08 RW 03 KAB. K E D I R I
227 1300536022 IKHWANUDIN ALI 10/08/1970 JLN. MAWAR JAMBE RT 002 RW 001 KAB. K E D I R I
228 1300536180 HAWARI ANISATI 16/07/1968 DSN. TRATE RT.001 RW.003 KAB. K E D I R I
229 1300536187 MUHTAR SAIIN 06/01/1980 DSN KUNIR RT 003 RW 004 KAB. K E D I R I
230 1300536188 DIANA ISNAINI 21/09/1980 DSN KUNIR RT 002 RW 004 KAB. K E D I R I
231 1300536189 SHOLIKIN 10/10/1970 TANGUNG MULYO RT.005 RW.001 KAB. K E D I R I
232 1300536191 WIJIATI 27/09/1974 TANGGUNG MULYO RT.005 RW.001 KAB. K E D I R I
233 1300536443 ZIDNI ILMAN NAFIA 01/07/1968 DSN PLOSO RT.003 RW.002 KAB. K E D I R I
234 1300536445 DEWI MUNJIBAH 25/09/2002 PLOSO RT.03 RW.02 KAB. K E D I R I
235 1300536537 AAN LUTFI TAMIM 02/04/1987 JL. BAGAWANTABARI RT. 004 RW. 003 KAB. K E D I R I
236 1300536548 SUPINAH 15/10/1952 JLN. DIGUL RT 002 RW 003 KAB. K E D I R I
237 1300536574 NURUL KHOFIFAH 03/01/1973 DSN SEMEN RT.002 RW.001 KAB. K E D I R I
238 1300536576 M. FADLOLI SYARIFUDDIN 01/08/1968 DSN. SEMEN RT.002 RW.001 KAB. K E D I R I
239 1300536691 PONI HARYANTO 01/01/1957 JL. KEDIRI RT.026 RW.009 KAB. K E D I R I
240 1300536692 SUKARTI, [Link] 01/07/1960 JL. KEDIRI RT.026 RW.009 KAB. K E D I R I
241 1300536693 TRI PAMUJI, DRS 10/09/1957 DUSUN BONDO RT.027 RW.009 KAB. K E D I R I
242 1300536694 KHURIYAH 11/03/1969 JL. KEDIRI RT.027 RW.009 KAB. K E D I R I
243 1300536695 SUTIAH 21/05/1965 JL SIKATAN 111 WATES RT.015 RW.005 KAB. K E D I R I
244 1300536696 SUNARNO 03/12/1961 JL SIKATAN 111 WATES RT.015 RW.006 KAB. K E D I R I
245 1300536697 SUPARNO 12/08/1960 JL. SRITI NO.141 RT.016 RW.005 KAB. K E D I R I
246 1300536698 NUNUK PURYAMIATI 04/01/1965 DSN JAYARAYA RT.016 RW.005 KAB. K E D I R I
247 1300536701 DRS. YASIFUN 07/05/1964 DSN. NGLUMBANG RT. 001 RW.001 KAB. K E D I R I
248 1300536703 SITI HIROK FAJAR SUBQI 07/08/1969 DSN. NGLUMBANG RT. 001 RW. 001 KAB. K E D I R I
249 1300536743 SUTARTI 24/04/1964 DSN. KRAJAN RT.002 RW.007 KAB. K E D I R I
250 1300536744 ACHMAD SU'UDI 04/04/1961 DSN. KRAJAN RT.002 RW.007 KAB. K E D I R I
251 1300536793 NURWAKID 15/10/1957 DSN. TEGALREJO RT.002 RW.005 KAB. K E D I R I
252 1300537012 PAISAH 03/01/1959 DSN. PUNJUL RT.001 RW.004 KAB. K E D I R I
253 1300537017 MARKAMAH 13/02/1944 [Link] RT.001 RW.006 KAB. K E D I R I
254 1300537034 CHAMBALI, [Link].I 05/07/1955 DSN. REJOWINANGUN KAB. K E D I R I
255 1300537123 ANISAH 10/12/1963 NGEBRAK RT.004 RW.002 KAB. K E D I R I
256 1300537186 SUKARTI 28/09/1966 DAWUNG RT.01 RW.01 KAB. K E D I R I
257 1300537260 MOH. ALI TOYIB 09/07/1984 DSN. MAESAN RT.01 RW.02 KAB. K E D I R I
258 1300537267 NURUL HIDAJATI 17/12/1948 JL. GAJAH MADA 112 A LK V RT.006 RW.003 KAB. K E D I R I
259 1300537366 CHORI 24/09/1954 DSN. NGRECO RT.002 RW.003 KAB. K E D I R I
260 1300537367 MUTIAH 20/02/1955 DSN. NGRECO RT.002 RW.003 KAB. K E D I R I
261 1300537391 DRS. SUYOTO HADI 10/04/1961 DSN PUCUNG RT.04 RW.02 KAB. K E D I R I
262 1300537393 DRA. TINTIN NURWATI 09/11/1964 DSN. PUCUNG RT.04 RW.02 KAB. K E D I R I
263 1300537491 ANNA ARIANINGSIH 19/07/1977 DUSUN BAJANG RT.001 RW.007 KAB. K E D I R I
264 1300537492 MAT HASIM 10/06/1971 DSN BAJANG RT.001 RW.007 KAB. K E D I R I
265 1300537509 SUKIRNO 18/07/1954 DSN KRANGGAN RT.003 RW.002 KAB. K E D I R I
266 1300537541 M. SAMSUN 14/08/1981 GROMPOL RT.003 RW.001 KAB. K E D I R I
267 1300537545 RINA HIDAYATI 08/01/1988 GROMPOL RT.003 RW.001 KAB. K E D I R I
268 1300537551 FREDI HERIANTO 11/04/1972 DSN. LUKSONGO RT.001 RW.006 KAB. K E D I R I
269 1300537556 SUPARMI 05/11/1953 DSN. LUKSONGO RT.001 RW.006 KAB. K E D I R I
270 1300537622 SRIANAH 10/05/1947 DSN BEDUG RT.001 RW.001 KAB. K E D I R I
271 1300537784 BINTI KHOMSIAH 13/11/1959 JL. PANDAN ARAN RT.002 RW.007 KAB. K E D I R I
272 1300537791 KATIYAH 04/10/1965 DSN WERU RT.001 RW.001 KAB. K E D I R I
273 1300537792 GATOT SUHARIYANTO 07/04/1958 DSN WERU RT.001 RW.001 KAB. K E D I R I
274 1300537845 ISBUDI 15/04/1966 JL. GEDE II LK V RT.004 RW.002 KAB. K E D I R I
275 1300537863 NUR AINUN 14/10/1969 JL. GEDE II LK V RT.004 RW.002 KAB. K E D I R I
276 1300537888 ELOK NURKHOLISOH, S. PD 14/06/1967 GROMPOL RT.001 RW.001 KAB. K E D I R I
277 1300537889 IMAM GHOZALI, DRS. H. 31/12/1962 GROMPOL RT.001 RW.001 KAB. K E D I R I
278 1300537905 ROHAN SAIDAH 02/01/1978 KALIBOTO RT.002 RW.009 KAB. K E D I R I
279 1300537908 SITI IFAYAH 13/01/1982 DSN. PLOSOKEREP RT.002 RW.002 KAB. K E D I R I
280 1300537912 MOCH. ZAINAL MUSTOFA 21/04/1970 DSN. PLOSOKEREP RT.002 RW.002 KAB. K E D I R I
281 1300537917 ERVINA 02/01/1987 [Link] RT.003 RW.001 KAB. K E D I R I
282 1300537918 YUSRON AHMAD 17/02/1986 JL. MERAK RT.002 RW.020 KAB. K E D I R I
283 1300537923 MURNIATI 07/03/1978 DSN. GROMPOL RT.001 RW.001 KAB. K E D I R I
284 1300537927 MOHAMMAD SOBIRIN 05/12/1976 DSN. GROMPPOL RT.001 RW.001 KAB. K E D I R I
285 1300537952 LUTFIA AFIFATUS SHOLICHAH 15/04/1987 DSN. CANGKRING RT.003 RW.007 KAB. K E D I R I
286 1300537953 SUKATRI 15/07/1964 DSN. TUMPANG RT.002 RW.002 KAB. K E D I R I
287 1300537956 SYAEFUDDIN 02/04/1986 DSN. CANGKRING RT.003 RW.007 KAB. K E D I R I
288 1300538001 SUHADI 02/05/1965 DSN. JABON TENGAH RT. 002 RW. 004 KAB. K E D I R I
289 1300538011 HARYOKO 14/04/1961 DSN BELUNG RT.002 RW.002 KAB. K E D I R I
290 1300538109 LILIK ENDANG SETYAWATI 11/12/1962 JL. MARABONTA RT.003 RW.002 KAB. K E D I R I
291 1300538111 SAIFUDIN 07/01/1960 JL. MARABONTA DSN. BALONG RT.003 RW.002 KAB. K E D I R I
292 1300538146 MARTINI 02/03/1972 DSN. JABON TENGAH RT. 002 RW. 004 KAB. K E D I R I
293 1300538174 EKO SETIYO 08/05/1948 DSN. WINONG RT.004 RW.004 KAB. K E D I R I
294 1300538187 SAMINI 01/01/1957 JL. MELATI RT.004 RW.001 KAB. K E D I R I
295 1300538188 SITI KHOIRIYAH 17/08/1970 DSN, KWEDEN RT.40 RW. 05 KAB. K E D I R I
296 1300538189 MOCH. THOYIB 07/01/1970 DSN. KWEDEN RT.40 RW.05 KAB. K E D I R I
297 1300538329 ALIF 06/12/1961 PURWOKERTO RT.002 RW.009 KAB. K E D I R I
298 1300538333 MURTINI 29/04/1961 DSN. NYAWANGAN RT.004 RW.005 KAB. K E D I R I
299 1300538473 MINATUN 04/03/1973 JL. DATUN DSN KETANGI RT.003 RW.010 KAB. K E D I R I
300 1300538533 SITI MASFUFAH 15/06/1963 DSN BABAAN RT.001 RW.002 KAB. K E D I R I
301 1300538535 SOEDJIJONO, [Link] 27/12/1955 DSN BABAAN RT.001 RW.002 KAB. K E D I R I
302 1300538546 ZAENAL FANANI, BA 04/04/1954 DSN. TAWANGREJO RT 003 RW.002 KAB. K E D I R I
303 1300538595 MATORI 02/06/1955 DSN NGEMPLAK RT.005 RW.003 KAB. K E D I R I
304 1300538642 NGASYARO ATMO DARMOJO 25/03/1958 BADAL RT.001 RW.002 KAB. K E D I R I
305 1300538679 MASKURUN 06/11/1959 DSN. NAMBANGAN RT.001 RW.002 KAB. K E D I R I
306 1300538753 MUDAWAMAH AFANDY 15/01/1975 DSN GROMPOL RT.004 RW.002 KAB. K E D I R I
307 1300538758 RIYADUS SHOLIHIN, H 07/03/1974 DSN GROMPOL RT.004 RW.002 KAB. K E D I R I
308 1300538799 SITI FATIMAH 01/01/1954 DSN. KALASAN RT.04 RW.11 KAB. K E D I R I
309 1300538934 SUDIONO 13/05/1962 JL. BRAWIJAYA 100B MULYOASRI RT.20 RW.10 KAB. K E D I R I
310 1300538939 ISTIANAH 19/02/1963 JL. BRAWIJAYA 100B MULYOASRI RT.20 RW.10 KAB. K E D I R I
311 1300538957 SITI SYAFA'AH 23/04/1955 DSN RINGINREJO RT.002 RW.001 KAB. K E D I R I
312 1300539049 SRI WIJIATI 17/08/1964 SAMBIROBYONG RT.001 RW.001 KAB. K E D I R I
313 1300539170 UMI MUJAYANAH 26/06/1966 DSN BABAAN RT.001 RW.002 KAB. K E D I R I
314 1300539173 AHMAD ALFAJAR 14/09/1999 DSN. BABAAN RT.001 RW.002 KAB. K E D I R I
315 1300539238 SRI ASTUTIK DWIWARNI 18/09/1961 DSN KRAJAN LOR RT.002 RW.001 KAB. K E D I R I
316 1300539387 SUKATEMI 01/07/1963 [Link] RT.01 RW.18 KAB. K E D I R I
317 1300539388 MUHTADI 01/07/1957 [Link] RT.01 RW.18 KAB. K E D I R I
318 1300539400 TRIKOYO 08/11/1967 DSN. TEGALARUM RT.003 RW.001 KAB. K E D I R I
319 1300539401 SHOLICHATIN 11/01/1974 DSN. TEGALARUM RT.003 RW.001 KAB. K E D I R I
320 1300539402 NINIK SUPIATI 02/11/1965 KP PANDEAN LK I KAB. K E D I R I
321 1300539403 ENY MARFIAH 01/03/1973 JL. MASTRIP KP PANDEAN RT.001 RW.004 KAB. K E D I R I
322 1300539404 ANAM 03/04/1959 DSN KRAJAN LOR RT.002 RW.001 KAB. K E D I R I
323 1300539427 NISWATIN KHUDURIYAH 26/02/1972 RINGINSARI KULON RT.001 RW.001 KAB. K E D I R I
324 1300539450 SRI ENDAH TJAHJOWATI, S KEP NS 18/07/1964 JL. KAMBOJA 36 RT.014 RW.003 KAB. K E D I R I
325 1300539451 TOAT SURYADI, S KEP MS 11/11/1961 JL. KAMBOJA 36 RT.014 RW.003 KAB. K E D I R I
326 1300539453 PURWIGATIANI 27/08/1957 PARANG AGUNG RT.005 RW.001 KAB. K E D I R I
327 1300539454 SIDDIKUL WAFA 20/04/1956 PARANG AGUNG RT.005 RW.001 KAB. K E D I R I
328 1300539466 DRA SRI MULYATI 30/07/1965 JL. PALEM 10 RT.009 RW.020 KAB. K E D I R I
329 1300539470 SUSILO, SE 29/03/1965 [Link] 10 RT.009 RW.020 KAB. K E D I R I
330 1300539485 DR. MOKHAMAT MUHSIN. MPD 20/05/1967 JLN. RAYA RT.001 RW.003 KAB. K E D I R I
331 1300539488 SUMIYATUN 03/01/1967 JL. RAYA RT.001 RW.003 KAB. K E D I R I
332 1300539490 SIMBUH 23/10/1941 DSN. TURUS RT. 001 RW. 003 KAB. K E D I R I
333 1300539514 MU'MININ 07/03/1965 DSN. JAGALAN RT.010 RW.004 KAB. K E D I R I
334 1300539524 FAIKHOTUL HIMAH 28/08/1986 DSN. MONDO TIMUR RT.006 RW.002 KAB. K E D I R I
335 1300539526 NURFARIDA MULYANA 21/04/1968 JL. BENGAWAN SOLO RT.002 RW.005 KAB. K E D I R I
336 1300539532 MUTINGAH 01/12/1952 DSN. SUMBER AGUNG RT.014 RW.005 KAB. K E D I R I
337 1300539541 HILMA FUADAH 18/08/1984 DSN. SUSUHAN RT.003 RW.004 KAB. K E D I R I
338 1300539551 DEWI PURWATI 16/02/1982 DSN. JOSAREN RT.002 RW.001 KAB. K E D I R I
339 1300539552 AGUS NUR KOLIS 12/07/1969 DSN. JOSAREN RT.002 RW.001 KAB. K E D I R I
340 1300539574 JUMINTEN 19/07/1975 [Link] RT.002 RW.003 KAB. K E D I R I
341 1300539575 MASYKUR 03/01/1969 [Link] RT.002 RW.003 KAB. K E D I R I
342 1300539742 IMAM TAUFIK 11/05/1977 JL. SALAK JOMBANGAN RT.025 RW.15 KAB. K E D I R I
343 1300539744 DWI AGUSTINA 18/08/1982 JL. DELIMA NO.10 RT.004 RW.014 KAB. K E D I R I
344 1300539796 HERU SUDARYATI 16/05/1976 DSN. JATISARI RT.005 RW.002 KAB. K E D I R I
345 1300539825 NURUL MUSOBIQOH 26/06/1975 JONGBIRU KAB. K E D I R I
346 1300539860 SITI AMANAH 01/06/1962 DS. DOKO RT.027 RW.005 KAB. K E D I R I
347 1300539908 DWI KARTI ASRINI 21/04/1961 GENENGAN RT.002 RW.003 KAB. K E D I R I
348 1300539910 ISMINI 04/06/1955 DSN. MLATI RT.001 RW.004 KAB. K E D I R I
349 1300540040 KAMINI 11/12/1952 SETONOREJO RT.003 RW.001 KAB. K E D I R I
350 1300540271 SRIATI 10/09/1956 DSN. PAGAK RT.002 RW.001 KAB. K E D I R I
351 1300540274 WIDJI 06/01/1949 DSN. BANGGLE RT.002 RW.001 KAB. K E D I R I
352 1300540293 SULISTYOWATI [Link] 26/02/1968 DSN. GALUHAN RT.001 RW.004 KAB. K E D I R I
353 1300540311 JUMIATI 19/06/1974 DSN. KRAJAN RT.001 RW.003 KAB. K E D I R I
354 1300540316 SITI YULAIKAH 12/03/1971 DSN. KEMIRAHAN RT.002 RW.001 KAB. K E D I R I
355 1300540429 ASYHARI 18/12/1974 DSN. BANGKOK RT.003 RW.004 KAB. K E D I R I
356 1300540434 ERFA YULIANI 24/08/1981 DSN. BANGKOK RT.003 RW.004 KAB. K E D I R I
357 1300540437 NURGITO 09/09/1963 JL. IRAWAN RT.001 RW.016 KAB. K E D I R I
358 1300540439 SITI MASRIAH 12/02/1971 JL. IRAWAN PAREREJO RT.001 RW.016 KAB. K E D I R I
359 1300540487 SOPIYAH 06/07/1955 DSN. JAMBEAN RT.001 RW.001 KAB. K E D I R I
360 1300540490 SENTOT SETYO WIBOWO 05/02/1982 DSN. JAMBEAN RT.001 RW.001 KAB. K E D I R I
361 1300540617 AHMAD SAKUR 20/01/1982 JL. GANG BUNTU RT.05 RW.03 KAB. K E D I R I
362 1300540618 AGUSTIN RINA RIASWATI 15/08/1979 JL. GANG BUNTU RT.05 RW.03 KAB. K E D I R I
363 1300540663 NUR HAYATI 31/12/1972 JL. IRAWAN 01 A RT.001 RW.016 KAB. K E D I R I
364 1300540689 DEWI MUTMAINAH 17/09/1964 DK GAPUK RT.001 RW.010 KAB. K E D I R I
365 1300540718 MUDRIKAH 01/07/1970 DSN. GONDANG RT.006 RW.002 KAB. K E D I R I
366 1300540721 SUPARNO 01/07/1964 DSN. GONDANG RT.006 RW.002 KAB. K E D I R I
367 1300540736 JAMINEM 07/05/1968 DAMPIT RT.001 RW.002 KAB. K E D I R I
368 1300540738 YAHMAN 01/07/1957 DAMPIT RT.001 RW.001 KAB. K E D I R I
369 1300540745 KARMILAH 11/08/1965 DAMPIT RT.001 RW.002 KAB. K E D I R I
370 1300540746 SISWANTO 05/08/1960 DAMPIT RT.003 RW.001 KAB. K E D I R I
371 1300540857 MINARSIH 13/05/1967 DSN SUMBER PUCUNG RT.026 RW.007 KAB. K E D I R I
372 1300540858 SUTOYO 27/08/1965 DSN SUMBERPUCUNG RT.026 RW.007 KAB. K E D I R I
373 1300540874 SUPARLAN 01/07/1964 JL. MADUKORO RT.004 RW.002 KAB. K E D I R I
374 1300540918 SUWARTI 28/04/1949 DSN BESUK RT.001 RW.009 KAB. K E D I R I
375 1300540943 ANDI SUWITO 25/04/1964 JL. SAKURA RT.002 RW.002 KAB. K E D I R I
376 1300540947 MASIS 06/11/1969 DSN. TAMANAN RT.001 RW.003 KAB. K E D I R I
377 1300540955 SITI MU'ADHOMAH 12/04/1979 DSN KRATON RT.002 RW.002 KAB. K E D I R I
378 1300540996 KATIRIN 13/03/1964 JL. KAMPUNGAN SENTUL RT.001 RW.001 KAB. K E D I R I
379 1300541175 NUNIK RATNAWATI 20/05/1980 DSN. TANJANGSARI RT.002 RW.001 DS. KAPI KEC KAB. K E D I R I
380 1300541177 RINA NUR INDAH SARI 07/05/1983 JL. A. YANI TIMUR RT.005 RW.007 KAB. K E D I R I
381 1300541255 MOH. HASYIM 06/07/1951 DSN. BADALPANDEAN RT.001 RW.002 KAB. K E D I R I
382 1300541309 MOH. ZAMROJI 05/05/1972 DSN. SUMBER PANCUR RT.042 RW.010 KAB. K E D I R I
383 1300541311 BINTI NURQOIDAH 25/11/1983 DSN SUMBER PANCUR RT.042 RW.010 KAB. K E D I R I
384 1300541502 DEWI KUSMAWATI, [Link].I. 02/04/1958 JL. BRAWIJAYA 93 RT.016 RW.004 KAB. K E D I R I
385 1300541513 DR. ROHMATULILIAH 29/05/1983 JL. PAMENANG NO.31 C RT.001 RW.007 KAB. K E D I R I
386 1300541514 DR. GILANG KUSDINAR 20/05/1981 JL. PAMENANG NO.31 C RT.001 RW.007 KAB. K E D I R I
387 1300541566 MASDJUDI ISY 05/04/1954 DSN. JATISARI RT.004 RW.002 KAB. K E D I R I
388 1300541609 SURYONO 06/05/1959 JL. GUNA SAWAHAN RT.002 RW.002 KAB. K E D I R I
389 1300541610 SUHARTINI 26/05/1963 DSN. SAWAHAN RT.0020RW.002 KAB. K E D I R I
390 1300541682 ENDAH WAHYUNI 27/06/1959 PERUM SUKOREJO INDAH NN 6 RT.05 RW.08 KAB. K E D I R I
391 1300541683 ASRI PURNAMI 12/01/1976 JL. PB SUDIRMAN 81 LK II RT.003 RW.004 KAB. K E D I R I
392 1300541685 ARI PURWANTO 06/02/1968 JL. PB SUDIRMAN LK II RT.003 RW.004 KAB. K E D I R I
393 1300541693 MUHAMMAD ZAWAWI 17/09/1967 DSN. BRENJUK RT.001 RW.002 KAB. K E D I R I
394 1300541695 UMI ROISAH 01/02/1973 DSN. BRENJUK RT.001 RW.002 KAB. K E D I R I
395 1300541743 RISMANTO 01/10/1972 DUNGUS RT.001 RW.001 KAB. K E D I R I
396 1300541744 FITRIA TIAN PERMADANI 23/05/1986 DUNGUS RT.013 RW.007 KAB. K E D I R I
397 1300541745 SARIANI 05/04/1945 DUNGUS RT.001 RW.001 KAB. K E D I R I
398 1300541747 SAMIATI 16/10/1958 DUNGUS RT.001 RW.001 KAB. K E D I R I
399 1300541818 KAYATUN 01/08/1960 SUKOHARJO RT.005 RW.004 KAB. K E D I R I
400 1300541820 KASMUJI 21/07/1958 SUKOHARJO RT.005 RW.004 KAB. K E D I R I
401 1300541854 NURHUDA 01/09/1963 DSN. KRATON RT.001 RW.001 KAB. K E D I R I
402 1300541855 IMALAH HIDAYATI 12/04/1971 DSN. KRATON RT.001 RW.001 KAB. K E D I R I
403 1300541902 SUMIATI 01/07/1968 JL. MELATI PRAYUNGAN RT.003 RW.002 KAB. K E D I R I
404 1300541903 GITAM 05/07/1957 DSN PRAYUNGAN RT.003 RW.002 KAB. K E D I R I
405 1300541913 PONISIH 12/04/1972 DSN. PUNCU RT.004 RW.002 KAB. K E D I R I
406 1300541914 HARIANTA 05/01/1970 DSN. PUNCU RT.004 RW.002 KAB. K E D I R I
407 1300541937 SITI MUNAWAROH 04/10/1964 DSN. BOGO RT.001 RW.008 KAB. K E D I R I
408 1300541939 PENI 15/12/1966 DSN. DLOPO RT.022 RW.003 KAB. K E D I R I
409 1300541959 WAHYUDI 27/09/1974 DSN. NAMBAKAN RT.001 RW.003 KAB. K E D I R I
410 1300541963 SURATUN 06/06/1963 DSN. MOJOAYU RT 005 RW 002 KAB. K E D I R I
411 1300541974 DODY CAHYONO 24/07/1979 DSN. JAGUNG RT.001 RW.008 KAB. K E D I R I
412 1300541980 SUTARYANTO 12/03/1972 JL. MALUKU RT.005 RW.008 KAB. K E D I R I
413 1300541982 ISTIQOMAH 20/10/1970 JL. MALUKU RT.005 RW.008 KAB. K E D I R I
414 1300542122 SUTADI 14/06/1959 DSN. GRINGGING RT.007 RW.002 KAB. K E D I R I
415 1300542123 SUHARTATIK 20/10/1960 DSN. GRINGGING RT.007 RW.002 KAB. K E D I R I
416 1300542163 NIK AMAH 30/09/1957 JL. TEGALAN RT.004 RW.005 KAB. K E D I R I
417 1300542251 SUYANTO 09/09/1960 DSN. TAJINAN RT.001 RW.001 KAB. K E D I R I
418 1300542274 SUKARNO 04/03/1963 DSN. SIDOMULYO RT.004 RW.001 KAB. K E D I R I
419 1300542281 REZA YUSRON 14/01/2000 DSN. SIDOMULYO RT.004 RW.001 KAB. K E D I R I
420 1300542303 JAKA PURWITA 14/08/1965 JL. NAKULO RT.004 RW.005 KAB. K E D I R I
421 1300542321 WIJI RAHAYU 19/12/1962 DSN. SUMBERBENING RT.048 RW.013 KAB. K E D I R I
422 1300542372 SISWATI ZALIHADI ROCHANI 16/11/1956 DSN. BANDULAN RT.001 RW.001 KAB. K E D I R I
423 1300542385 YULITA TRI MARTINI 27/03/1974 PERUM JOMBANGAN ASRI G8 RT.003 RW.001 KAB. K E D I R I
424 1300542389 MUHAMAD NUR FATHONI 28/12/1969 PERUM JOMBANGAN ASRI G8 RT.003 RW.011 KAB. K E D I R I
425 1300542494 MAKALI 01/07/1949 DSN. SUMBER URIP II E RT.021 RW.004 KAB. K E D I R I
426 1300542589 SITI UMAHATUL MARDIYAH 09/06/1975 DSN. KEMIRI RT.002 RW.002 KAB. K E D I R I
427 1300542591 SUNARYO 04/06/1968 DSN. KEMIRI RT.002 RW.002 KAB. K E D I R I
428 1300542596 AYUNAH 07/08/1958 DSN. BUNUT RT.014 RW.005 KAB. K E D I R I
429 1300542626 ISKANDAR 25/06/1971 DSN. NGLETIH BARAT RT.001 RW.0 KAB. K E D I R I
430 1300542636 SITI MUKAROMAH 12/03/1971 DSN BLABAK RT.001 RW.004 KAB. K E D I R I
431 1300542637 BUDI ONO 15/07/1963 DSN BLABAK RT.001 RW.004 KAB. K E D I R I
432 1300542658 TRI YUNINGSIH 25/07/1962 JL. BROMO 4 RT.004 RW.002 KAB. K E D I R I
433 1300542758 EMILIA KRISNAWATI 03/09/1974 JL. ABU BAKAR RT.001 RW.011 KAB. K E D I R I
434 1300542759 YUDI IRAWANTO 22/10/1972 JL. ABU BAKAR RT.001 RW.002 KAB. K E D I R I
435 1300542930 WINARTI 26/10/1959 JL. [Link] GG MANGGA I RT.05 RW.01 KAB. K E D I R I
436 1300542933 HARIYANTO 01/03/1959 JL. [Link] II GG MANGGA 1B RT.05 RW.11 KAB. K E D I R I
437 1300542936 MISBAKHUL MUNIR 04/05/1977 DSN. POJOK RT.002 RW.002 KAB. K E D I R I
438 1300543005 ABDUL FATAH 05/06/1960 DSN. NGRECO RT.003 RW.001 KAB. K E D I R I
439 1300543006 NURUL HIDAYAH 08/10/1962 NGRECO RT.002 RW.001 KAB. K E D I R I
440 1300543014 KOMARIYAH 01/07/1971 DSN. NGRECO RT.003 RW.001 KAB. K E D I R I
441 1300543104 HASYIM, [Link].I 05/05/1959 JL. PONDOK RT.002 RW.003 KAB. K E D I R I
442 1300543105 SITI CHAFSHOH, S. PD. I 11/06/1958 JL. PONDOK RT.002 RW.003 KAB. K E D I R I
443 1300543151 MAHFUDZ JUNAIDI 01/06/1970 DS. PETOK RT.004 RW.005 KAB. K E D I R I
444 1300543159 INNI MUNIFAH 05/05/1981 DSN. BANJAREJO RT.001 RW.002 KAB. K E D I R I
445 1300543163 M. ANDRI BADERIAN 09/03/1978 DSN. BANJAREJO RT.001 RW.002 KAB. K E D I R I
446 1300543184 SITI SAIKAH 01/01/1961 DSN. UTARA RT.002 RW.001 KAB. K E D I R I
447 1300543227 ANSORI 01/07/1955 DSN. WONOKASIHAN RT.005 RW.007 KAB. K E D I R I
448 1300543228 PU'ANAH 01/07/1960 DSN. WONOKASIHAN RT.005 RW.007 KAB. K E D I R I
449 1300543274 PURNOMO 17/07/1953 DSN. BRINGIN RT.004 RW.001 KAB. K E D I R I
450 1300543278 M KUSEN ABDULAH 30/08/2000 DSN. BRINGIN RT.004 RW.001 KAB. K E D I R I
451 1300543317 SITI MUYASAROH 29/10/1979 BLABAK RT.003 RW.002 KAB. K E D I R I
452 1300543326 IKA MEI SETIASIH 01/05/1962 DSN. GRINGGING RT.003 RW.001 KAB. K E D I R I
453 1300543361 EKO SUSENO 21/09/1960 DSN. GRINGGING RT.003 RW.001 KAB. K E D I R I
454 1300543431 SUGENG PRIYOARWAKA 07/02/1969 DSN BLABAK RT.003 RW.002 KAB. K E D I R I
455 1300543448 IMAM ROMLI 21/03/1963 DSN. JEGLES RT.005 RW.001 KAB. K E D I R I
456 1300543468 SUSIHMI 11/11/1967 DSN. JEGLES RT.005 RW.001 KAB. K E D I R I
457 1300543471 MUSTAKIM H 26/06/1945 DSN. JEGLES RT.005 RW.001 KAB. K E D I R I
458 1300543473 RAEDI 16/03/1972 DSN. TEMPURAN RT.003 RW.005 KAB. K E D I R I
459 1300543477 KUSMIATI 08/04/1974 DSN. TEMPURAN RT.003 RW.005 KAB. K E D I R I
460 1300543485 ALI NABHAN 12/08/1969 DSN. POHBLEMBEM RT.004 RW.008 KAB. K E D I R I
461 1300543486 TITIK MUSFIATIN 26/03/1978 DSN. POHBLEMBEM RT.004 RW.008 KAB. K E D I R I
462 1300543489 ASMAUL HADI 19/05/1960 DSN. SUMBER PUCUNG RT.023 RW.006 KAB. K E D I R I
463 1300543490 RUSMINAH 10/03/1961 DSN. SUMBERPUCUNG RT.023 RW.006 KAB. K E D I R I
464 1300543495 IMAM TAUCHIT 04/10/1968 JL. KUTILANG 419 RT.002 RW.001 KAB. K E D I R I
465 1300543621 CHOMSATUN 23/04/1957 JL. COMAL RT.002 RW.003 KAB. K E D I R I
466 1300543622 AMAM 19/05/1943 BENDO RT.002 RW.003 KAB. K E D I R I
467 1300543664 MURWANI 12/08/1957 JL. PUNCAK 06 RT.002 RW.005 KAB. K E D I R I
468 1300543670 BINTARTI INDRAWANI 18/05/1977 JL. PUNCAK 06 RT.002 RW.005 KAB. K E D I R I
469 1300543733 KARYONO 12/03/1961 DUSUN JERUK RT.004 RW.003 KAB. K E D I R I
470 1300543786 PURWADI SETYO ATMODJO 02/07/1963 JL. MOJO NO.14 RT.001 RW.016 KAB. K E D I R I
471 1300543790 BINTI SURYATI 15/09/1970 JL. MOJO RT.001 RW.016 KAB. K E D I R I
472 1300543810 TRI KUSMIATIN NASIKAH 06/03/1984 JL. RAYA JONGBIRU RT.010 RW.002 KAB. K E D I R I
473 1300543831 SITI SOLEKAH 01/07/1947 DSN SAMBIREJO RT.002 RW.002 KAB. K E D I R I
474 1300543841 NUR CHOLISODIN 28/05/1968 DSN. POGAR RT.001 RW.014 KAB. K E D I R I
475 1300543843 SITI WASITAH 01/07/1958 DSN. JEGLES RT.005 RW.001 KAB. K E D I R I
476 1300543866 TAMIM 01/07/1960 DSN KRATON RT.002 RW.005 KAB. K E D I R I
477 1300543870 MAROKAH 01/07/1966 DSN KRATON RT.002 RW.005 KAB. K E D I R I
478 1300543895 SHOFRO'UL LAILIYAH 12/01/1984 DSN. KAOTAN RT.001 RW.001 KAB. K E D I R I
479 1300543896 IMAM MUJTAHID 03/06/1974 DSN. KAOTAN RT.001 RW.001 KAB. K E D I R I
480 1300544171 MASKANAH 10/12/1952 DSN SENDANG RT.004 RW.002 KAB. K E D I R I
481 1300544198 PINATUN, [Link]. 13/06/1958 DSN. GEMPOLAN RT.002 RW.002 KAB. K E D I R I
482 1300544220 GUSTUR SABARODIN, [Link] 16/08/1957 DSN PETOK RT.003 RW.003 KAB. K E D I R I
483 1300544436 IMAM MUHADI 29/06/1960 JONGBIRU RT.007 RW.002 KAB. K E D I R I
484 1300544444 INSIYAH 10/01/1963 DSN JARO RT.001 RW.003 KAB. K E D I R I
485 1300544448 MISLAN 23/11/1954 DSN JARO RT.001 RW.003 KAB. K E D I R I
486 1300544461 JAKA JANJIANA 21/03/1968 JL. GEREJA RT.001 RW.002 KAB. K E D I R I
487 1300544466 SITI MALIKAH 09/11/1973 DS. TIRULOR JL. GEREJA RT.001 RW.002 KAB. K E D I R I
488 1300544569 MOH. NADJIB 06/04/1953 KEDAK RT.002 RW.005 KAB. K E D I R I
489 1300544574 NUR SYAMSIYAH 11/11/1959 DSN KEDAK LOR RT.002 RW.005 KAB. K E D I R I
490 1300544673 MALIKAH 17/07/1962 DSN. KLATEN RT.04 RW.10 KAB. K E D I R I
491 1300544679 M FAUZI 28/09/1950 DSN. KLATEN RT.04 RW.10 KAB. K E D I R I
492 1300544687 SUPRADATI 21/11/1963 DSN. BECEK RT 03 RW 04 KAB. K E D I R I
493 1300544737 KHOTIMAH 14/12/1954 PRWOREJO RT.004 RW.001 KAB. K E D I R I
494 1300544740 MOCH. KUSNO, [Link] 20/02/1958 JL. DHERMAWAN NO.156 RT.003 RW.001 KAB. K E D I R I
495 1300544744 PUJI ASTUTI, [Link] 20/10/1965 JL. DHERMAWAN RT.003 RW.001 KAB. K E D I R I
496 1300544748 SULASTRI 12/05/1959 DSN. NGRECO RT.002 RW.003 KAB. K E D I R I
497 1300544749 IMAM MAHMUDI 26/04/1966 DSN TANJANG RT.003 RW.005 KAB. K E D I R I
498 1300544766 UMI TSAMROTUL KHOIRIYAH 18/08/1969 DSN. SAGI RT.003 RW.006 KAB. K E D I R I
499 1300544856 MOHAMAD MOKLIS 26/07/1970 DSN. SELATAN RT.001 RW.003 KAB. K E D I R I
500 1300544858 TITIK LAILATUL MULTAZAMAH 13/02/1970 DSN. SELATAN RT.001 RW.003 KAB. K E D I R I
501 1300544862 ARINI IRMANINGSIH, [Link]. 01/01/1976 DS. GOGORANTE RT.003 RW.001 KAB. K E D I R I
502 1300544864 MOH. AMAK BURHANUDIN 13/01/1975 DS. GOGORANTE RT.003 RW.001 KAB. K E D I R I
503 1300544865 SHOLIHIN 31/12/1958 DSN BARAN RT.001 RW.002 KAB. K E D I R I
504 1300544872 IMAM MARHADI 11/04/1953 DSN. BULUSAN RT.004 RW.005 KAB. K E D I R I
505 1300544877 SRI WINARSIH 15/01/1957 DSN. BULUSAN RT.004 RW.005 KAB. K E D I R I
506 1300544948 M. NAWAWI 13/12/1990 JL. SULAWESI TALUN RT.002 RW.009 KAB. K E D I R I
507 1300544958 MUKAROMAH 10/03/1958 JL. SULAWESI TALUN RT.002 RW.009 KAB. K E D I R I
508 1300545004 ABDUL MANAB 12/06/1968 DSN. PLOSO RT.001 RW.003 KAB. K E D I R I
509 1300545006 MARIANI 27/02/1978 DSN. PLOSO RT.001 RW.003 KAB. K E D I R I
510 1300545008 ARI HUFRON 27/03/1979 DSN. PLOSO RT.002 RW.003 KAB. K E D I R I
511 1300545009 MUSDALIPAH 22/02/1964 DSN. PLOSO RT.002 RW.004 KAB. K E D I R I
512 1300545118 SAIFUDDIN 17/10/1971 DAYU RT.002 RW.003 KAB. K E D I R I
513 1300545119 NURUL HIDAYAH 28/05/1971 DAYU RT.002 RW.003 KAB. K E D I R I
514 1300545123 MOCH. RIYANTO BASUKI 22/06/1962 [Link] JL. MERPATI 35 RT.020 RW.005 KAB. K E D I R I
515 1300545126 RUKMIATI 27/11/1966 PERUM GRIYATAMAJL.MERPATI35 RT.020RW.005 KAB. K E D I R I
516 1300545157 KABUL 25/04/1952 DSN BABA'AN RT.005 RW.002 KAB. K E D I R I
517 1300545158 UMI KALSUM 19/12/1961 TUGUREJO RT.005 RW.002 KAB. K E D I R I
518 1300545189 ST. MARWIYAH 02/10/1960 DSN. SEMBUNG RT.001 RW.010 KAB. K E D I R I
519 1300545194 NUR CHAMID 24/06/1953 DSN. SEMBUNG RT.001 RW.001 KAB. K E D I R I
520 1300545235 IMAM 01/12/1954 DS. GAMPENG RT.005 RW.002 KAB. K E D I R I
521 1300545236 SUNARSIH 15/09/1961 DS. GAMPENG RT.005 RW.002 KAB. K E D I R I
522 1300545242 SUWARNI 14/06/1968 DSN GLAGAHAN RT.002 RW.004 KAB. K E D I R I
523 1300545246 MARSITI 23/03/1952 JL. GOTONG ROYONG RT.001 RW.004 KAB. K E D I R I
524 1300545297 ERY HERWANTO 23/07/1982 SARIWANGI RT.002 RW.008 KAB. K E D I R I
525 1300545303 NUR IKA SOFIYANTI 16/05/1983 DSN SARIWANGI RT.002 RW.008 KAB. K E D I R I
526 1300545304 MUNIF MUSYAWAROH 12/09/1966 NGINO RT.002 RW.008 KAB. K E D I R I
527 1300545305 SUNARTI 17/06/1963 DSN. JATEN RT.002 RW.001 KAB. K E D I R I
528 1300545306 SUDIYONO 07/06/1963 DSN KALIAWEN BARAT RT.002 RW.008 KAB. K E D I R I
529 1300545311 ELVI MASRUROH 18/03/1972 DSN SUSUHBANGO UTARA RT.002 RW.002 KAB. K E D I R I
530 1300545315 ISHAK 01/03/1968 JLN. MASJID 2 RT.002 RW.002 KAB. K E D I R I
531 1300545332 WIN SRINGATI 01/07/1959 DSN GONDANG RT.005 RW.002 KAB. K E D I R I
532 1300545341 SITI DALMIATUN 10/01/1970 DSN GLAGAHAN RT.002 RW.004 KAB. K E D I R I
533 1300545364 SUSISWO 12/04/1963 DSN. KWEDEN RT.039 RW.005 KAB. K E D I R I
534 1300545365 SURINI 21/12/1971 DSN. KWEDEN RT.039 RW.005 KAB. K E D I R I
535 1300545366 SUNARTI 24/06/1966 DSN. KENTON RT.002 RW.002 KAB. K E D I R I
536 1300545398 ENY SETIYORINI,[Link] 15/07/1969 [Link] NO.68 RT 002 RW 001 KAB. K E D I R I
537 1300545402 IMRON NURYAJID,SE 23/08/1969 [Link] NO.68 RT 002 RW 001 KAB. K E D I R I
538 1300545405 MOH. NUH 14/11/1956 DSN. KALIRONG RT/RW 002/002 KAB. K E D I R I
539 1300545414 SUTRISNO 01/07/1959 DSN UTARA RT.002 RW.001 KAB. K E D I R I
540 1300545458 MUSHOLIN 08/07/1968 DSN BORO RT 002 RW 002 KAB. K E D I R I
541 1300545571 WINARKO, S. SI APT 17/01/1977 DSN. KEPUNG TIMUR RT.002 RW.002 KAB. K E D I R I
542 1300545579 LINDA PURI ASIYANTI 16/08/1978 DSN. KEPUNG TIMUR RT.005 RW.001 KAB. K E D I R I
543 1300545626 SUPARMI, [Link] 09/09/1963 DSN KEBANAN RT.002 RW.004 KAB. K E D I R I
544 1300545628 KHOIRI 18/11/1962 DSN. KEBANAN RT.002 RW.004 KAB. K E D I R I
545 1300545653 ARIF ICHWANUL HASAN 22/02/1985 DSN. NGLETIH BARAT RT.008 RW.000 KAB. K E D I R I
546 1300545706 TITIK ENDANG SUMARMI 25/11/1979 DSN NGRECO RT.002 RW.001 KAB. K E D I R I
547 1300545709 AHMAD ZAENUDIN 15/03/1972 DSN NGRECO RT.002 RW.001 KAB. K E D I R I
548 1300545719 KHOTIM WINARNI 14/12/1967 DSN BOGO RT.002 RW.007 KAB. K E D I R I
549 1300545722 KHOLISOTUL MURTAFI'AH 10/03/1970 JL. IMAM BONJOL RT.001 RW.003 KAB. K E D I R I
550 1300545857 NINA AINI MAHBUBAH 05/10/1971 DSN BOYOLALI RT.001 RW.001 KAB. K E D I R I
551 1300545859 ABDUL MUID 26/09/1969 DSN BOYOLALI RT.001 RW.001 KAB. K E D I R I
552 1300545907 MOCH. AMIN 11/11/1956 KAYEN KIDUL RT.002 RW.001 KAB. K E D I R I
553 1300545910 MUSITI 01/07/1948 DSN. JATEN 2D RT.024 RW.006 KAB. K E D I R I
554 1300545915 BUDI KUNCORO 23/01/1961 JL. JOYOBOYO 3 NO. 35 RT.002 RW.005 KAB. K E D I R I
555 1300545918 SUNARTI 07/12/1961 JL. JOYOBOYO 3 NO.35 RT.02 RW.15 KAB. K E D I R I
556 1300545950 ISTIBANAH 12/08/1978 MOJOSARI RT 016 RW 004 KAB. K E D I R I
557 1300545953 MOHAMAD DJAELANI 09/12/1969 MOJOSARI RT 016 RW 004 KAB. K E D I R I
558 1300545968 MOCHAMAD SOFI'I 23/03/1978 JL. RADEN PATAH RT.008 RW.004 KAB. K E D I R I
559 1300545973 DENI UMAR SAPUTRA 19/03/2000 JL. RADEN PATAH RT.008 RW.004 KAB. K E D I R I
560 1300545977 UMAR SAIT 31/12/1956 DSN JERUK RT.006 RW.004 KAB. K E D I R I
561 1300545981 SRIANI 08/02/1961 DSN JERUK RT.006 RW.004 KAB. K E D I R I
562 1300546045 MUTLIAH 02/12/1969 DSN PAGAK RT.001 RW.001 KAB. K E D I R I
563 1300546055 H. CHUSNUDDIN ANSHORI, SH 15/05/1964 DSN WONOREJO RT.012 RW.002 KAB. K E D I R I
564 1300546056 MUJAYANAH 05/11/1966 DSN WONOREJO RT.012 RW.002 KAB. K E D I R I
565 1300546058 SUHARTINAH 12/03/1964 DSN WONOREJO RT.011 RW.002 KAB. K E D I R I
566 1300546061 SUNYOTO 20/03/1954 DSN WONOREJO RT.011 RW.002 KAB. K E D I R I
567 1300546062 IR. H. MOHAMMAD MAKRUB, MM 28/07/1963 DSN KUNIR RT.002 RW.001 KAB. K E D I R I
568 1300546071 DRA. SITI SYAIFA KUSNUL AMANAH 28/08/1967 DSN KUNIR RT.002 RW.001 KAB. K E D I R I
569 1300546092 MOHAMAD DJAENURI 01/08/1959 DSN SANTREN RT.001 RW.001 KAB. K E D I R I
570 1300546094 SUPARTI 06/06/1966 DSNSANTREN RT.001 RW.001 KAB. K E D I R I
571 1300546141 SUWARNI 25/05/1972 DSN KLATEN RT.002 RW.007 KAB. K E D I R I
572 1300546237 MUKHAMAD ISWAHYUDI 31/01/1992 DSN NGAWINAN RT.001 RW.001 KAB. K E D I R I
573 1300546238 LAILI MUTHOHAROH, [Link] 28/10/1985 DSN JENGGOLO RT.003 RW.004 KAB. K E D I R I
574 1300546240 SYAFI'I YUSUF, [Link]. SPDI 16/07/1976 DSN JENGGOLO RT.003 RW.004 KAB. K E D I R I
575 1300546242 LULUK MASRUROH 15/07/1982 DSN PESANTREN RT.004 RW.002 KAB. K E D I R I
576 1300546244 ALI MASCHAN, H 11/04/1976 DSN PESANTREN RT.004 RW.002 KAB. K E D I R I
577 1300546246 LU'LUATUL MABRUROH, [Link] 04/12/1976 DSN JENGGOLO RT.003 RW.004 KAB. K E D I R I
578 1300546248 ABDUL WAHIB WIDODO, [Link] 19/02/1976 DSN JENGGOLO RT.003 RW.004 KAB. K E D I R I
579 1300546314 WIWIK ISMALIYAH 05/06/1962 DSN. DAMARWULAN RT.005 RW.002 KAB. K E D I R I
580 1300546376 BAMBANG TRI ASMARA 23/01/1969 SUMBERCANGKRING RT.001 RW.001 KAB. K E D I R I
581 1300546377 ROEHATUL JANAH 18/07/1977 DSN SUMBERCANGKRING RT.001 RW.001 KAB. K E D I R I
582 1300546409 SITI LUTFIYAH 25/03/1979 DSN MOJOSARI RT.002 RW.002 KAB. K E D I R I
583 1300546411 ARBA'U RIZAL 03/03/1975 DSN MOJOSARI RT.002 RW.002 KAB. K E D I R I
584 1300546418 YUSUF SUGIANTORO 09/11/1971 KLAMPISAN RT.004 RW.002 KAB. K E D I R I
585 1300546421 MUSLICHATIN 12/07/1975 DSN KLAMPISAN RT.004 RW.002 KAB. K E D I R I
586 1300546479 ALIN RETNO WAHYU WIJAYANTI 19/12/1980 DSN MENANG RT.001 RW.002 KAB. K E D I R I
587 1300546540 SRI SUMIARTI 14/02/1952 DSN MUKUH RT.003 RW.002 KAB. K E D I R I
588 1300546551 DRS. SETUAJI 31/12/1957 DSN NGADILOYO RT.002 RW.006 KAB. K E D I R I
589 1300546558 SITI LATIFAH 27/03/1970 JL. HALMAHERA RT.002 RW.017 KAB. K E D I R I
590 1300546566 SUTIYO 31/12/1965 JL. HALMAHERA RT.002 RW.017 KAB. K E D I R I
591 1300546720 MUHAMMAD ISTYAWAN 26/08/1993 DSN KALEN RT.001 RW.002 KAB. K E D I R I
592 1300546721 HARI SARYONO 19/12/1975 DSN KALEN RT.001 RW.002 KAB. K E D I R I
593 1300546816 RIRIK VERIATI 06/06/1976 DSN KARANGDORO RT.005 RW.004 KAB. K E D I R I
594 1300546818 NUR HALIM 12/01/1973 DSN KARANGDORO RT.005 RW.004 KAB. K E D I R I
595 1300546819 ABDUL KOHAR, [Link] 06/02/1945 BARAN RT.01 RW.13 KAB. K E D I R I
596 1300546843 A. KHOZINUL ABID ZAIN 10/02/1973 DSN BAKALAN KIDUL RT.015 RW.007 KAB. K E D I R I
597 1300546844 DEWI AMINAH 28/04/1977 DSN BAKALAN KIDUL RT.015 RW.007 KAB. K E D I R I
598 1300546977 BINTI MARLIYAH 19/06/1964 JL. SALAK JOMBANGAN RT.002 RW.015 KAB. K E D I R I
599 1300546981 ENDI ROHENDI 14/07/1964 JL. SALAK JOMBANGAN RT.002 RW.015 KAB. K E D I R I
600 1300547112 AHARI 06/06/1971 DSN COMBONG RT.015 RW.005 KAB. K E D I R I
601 1300547114 SURYANI SRI REJEKI 11/02/1972 DSN COMBONG RT.015 RW.005 KAB. K E D I R I
602 1300547135 ALI JA'FAR 17/11/1963 TANJUNG RT.001 RW.001 KAB. K E D I R I
603 1300547251 SUMADJI 09/05/1947 JL. AIRLANGGA 165 KATANG RT.001 RW.001 KAB. K E D I R I
604 1300547317 WASITAH 23/05/1969 RINGIN BAGUS RT.002 RW.001 KAB. K E D I R I
605 1300547319 SUNAR, [Link] 04/05/1962 DSN RINGIN BAGUS RT.002 RW.001 KAB. K E D I R I
606 1300547339 SITI ZULAIKAH 22/10/1955 JL. AIRLANGGA 165 KATANG RT.001 RW.001 KAB. K E D I R I
607 1300547651 SUGENG HARIYANTO 03/11/1956 JL. PAMENANG RT.004 RW.005 KAB. K E D I R I
608 1300547806 SUMEDI 14/02/1962 JL. RAYA DSN. TAWANG RT.012 RW.003 KAB. K E D I R I
609 1300547906 MUKI MAHMUDI 09/09/1958 DSN NGLABAN RT.002 RW.003 KAB. K E D I R I
610 1300547908 JUMINAH 24/10/1966 DSN NGLABAN RT,002 RW.003 KAB. K E D I R I
611 1300548007 DRS. SUWANDI 06/08/1959 DSN MUNING RT.003 RW.004 KAB. K E D I R I
612 1300548008 LELI RACHMAWATI 10/03/1992 DSN MUNING RT.003 RW.004 KAB. K E D I R I
613 1300548034 NUR KHALIMAH 25/08/1973 DSN. SAMBI RT.003 RW.002 KAB. K E D I R I
614 1300548035 M. IRFAN ZAINUDDIN 06/11/1980 [Link] RT.003 RW.002 KAB. K E D I R I
615 1300548081 AINUN NAZULA 08/03/1972 DSN MAYAN RT.006 RW.002 KAB. K E D I R I
616 1300548083 LATIF USMAN 05/05/1968 DSN MAYAN RT.006 RW.002 KAB. K E D I R I
617 1300548129 SRI MULYOWATI 20/10/1954 SAMBI RT.005 RW.003 KAB. K E D I R I
618 1300548210 MOCHAMAD NAIM 22/01/1953 DSN NGADILUWIH RT.005 RW.004 KAB. K E D I R I
619 1300548380 H. SANUSI ANWAR MAHMUD 04/01/1955 DSN RINGINSARI RT.001 RW.001 KAB. K E D I R I
620 1300548383 AHMAD SHOLEH HABIBI IBNU ROSYID 23/04/2002 DSN RINGINSARI RT.01 RW.01 KAB. K E D I R I
621 1300548392 ABDUL NASIR BADRUS ARIF, H 12/11/1958 JL. RAYA PURWOASRI RT.004 RW.002 KAB. K E D I R I
622 1300548394 FAUQI HUSNA 28/10/1996 TEMPLEK RT.04 RW.02 KAB. K E D I R I
623 1300548395 KUNI KAMILA 09/02/2001 TEMPLEK RT.04 RW.02 KAB. K E D I R I
624 1300548396 DRA. HJ. MAS'UDAH 10/09/1963 DSN TEMPLEK RT.004 RW.002 KAB. K E D I R I
625 1300548397 SOETADJI 01/02/1948 JL. GARUDA 11 RT.005 RW.004 KAB. K E D I R I
626 1300548398 NASIKODIN 10/10/1969 DSN. BANARAN RT.02 RW.06 KAB. K E D I R I
627 1300548400 SITI KOMARIYAH 03/09/1972 DSN. BANARAN RT.002 RW.006 KAB. K E D I R I
628 1300548401 MISBAHUL MUNIR 01/07/1962 DSN. BANARAN RT.02 RW.06 KAB. K E D I R I
629 1300548402 SRI RUKMIATI 01/07/1968 DSN. BANARAN RT. 02 RW.06 KAB. K E D I R I
630 1300548403 HAJAT 01/01/1954 DSN. KUNTI RT.001 RW.003 KAB. K E D I R I
631 1300548404 MASTIANIK 10/12/1955 DSN. KUNTI RT.01 RW.03 KAB. K E D I R I
632 1300548405 ISTIANAH 21/04/1950 DSN BOYOLALI RT.001 RW.001 KAB. K E D I R I
633 1300548414 SHOLIKATUN 31/12/1961 DSN BANGI RT.001 RW.007 KAB. K E D I R I
634 1300548415 AGUS ROMADHON 16/08/1978 DSN BANGI RT.001 RW.007 KAB. K E D I R I
635 1300548748 MARLIYAH 12/01/1959 DSN PURWOHARJO RT.003 RW.007 KAB. K E D I R I
636 1300548750 GURETNO 12/12/1951 DSN PURWOHARJO RT.003 RW.010 KAB. K E D I R I
637 1300548751 ANA SRI IDA NURFITRI 22/02/1979 DSN PURWOHARJO RT.003 RW.007 KAB. K E D I R I
638 1300548752 JUWARNO 08/04/1972 DSN PURWOHARJO RT.003 RW.007 KAB. K E D I R I
639 1300548856 MIATUN 28/01/1948 JL. TAMBORA 01 C RT.002 RW.003 KAB. K E D I R I
640 1300548870 SUPRAPTO 20/05/1964 DSN JAPANG RT.040 RW.008 KAB. K E D I R I
641 1300548877 ASMAWATI 26/04/1980 DSN JAPANG RT.040 RW.008 KAB. K E D I R I
642 1300549176 NETIK KOMARIYAH 21/02/1983 DSN PADANGAN RT.001 RW.004 KAB. K E D I R I
643 1300549177 EKO PRASETYO 13/05/1980 DSN PADANGAN RT.001 RW.004 KAB. K E D I R I
644 1300549315 UMBRUK SRI RAHAYU 14/04/1971 DSN SIDODADI RT.002 RW.005 KAB. K E D I R I
645 1300549320 MUJIONO 11/05/1971 DSN SIDODADI RT.001 RW.005 KAB. K E D I R I
646 1300549435 UMIATI 03/05/1967 DSN BABATAN RT.006 RW.002 KAB. K E D I R I
647 1300549826 YAYUK 13/06/1960 DSN BATU ASRI RT.007 RW.003 KAB. K E D I R I
648 1300549840 JAMILAN 02/02/1953 DSN KALIRONG RT.002 RW.003 KAB. K E D I R I
649 1300549842 YATOKAH 01/07/1960 DSN KALIRONG RT.002 RW.003 KAB. K E D I R I
650 1300549843 DJUMARI 06/09/1960 DSN JAGALAN RT.008 RW.004 KAB. K E D I R I
651 1300549847 ETI SUDARTI 08/08/1960 DSN JAGALAN RT.008 RW.004 KAB. K E D I R I
652 1300549884 NAPSIYAH 14/10/1958 DSN TAMBAKREJO RT.002 RW.001 KAB. K E D I R I
653 1300549931 SUWARNI 03/04/1965 DSN TEGALREJO RT.005 RW.003 KAB. K E D I R I
654 1300549932 MAMLUKATUL FARIDA 16/03/1966 JL. SERANG 1A RT.001 RW.001 KAB. K E D I R I
655 1300549933 MOHAMMAD ADIB 05/10/1964 JL. SERANG PELEM RT.001 RW.001 KAB. K E D I R I
656 1300549955 KASIDI 10/08/1952 BLAWE RT.006 RW.001 KAB. K E D I R I
657 1300549957 SUHARTIN 01/01/1970 BLAWE RT.006 RW.001 KAB. K E D I R I
658 1300550105 DJAZULI 15/11/1945 DSN TAMBAKREJO RT.002 RW.001 KAB. K E D I R I
659 1300550192 M. MIFTACHUL ARIFIN 18/07/1973 BANARAN RT.003 RW.008 KAB. K E D I R I
660 1300550193 RIRIN OKTAVIANINGRUM 12/10/1975 BANARAN RT.001 RW.008 KAB. K E D I R I
661 1300550311 MASTUTIK 29/12/1959 SUKOHARJO RT.001 RW.004 KAB. K E D I R I
662 1300550384 NURSALIM 05/01/1968 DESA NGEBRAK RT.002 RW.003 KAB. K E D I R I
663 1300550386 MUSHOLIKHAH 24/08/1971 DS. NGEBRAK RT.002 RW.003 KAB. K E D I R I
664 1300550464 ANDAYATI 06/12/1952 DSN MENANG RT.004 RW.003 KAB. K E D I R I
665 1300555112 NEHRU TRI WALUYO 03/04/1951 DSN. JERUK RT 05 RW 03 KAB. K E D I R I
666 1300591126 SITI FATIMAH 07/05/1963 DSN REJOWINANGUN RT.001 RW.002 MINGGIRA KAB. K E D I R I
667 1300592200 MASLIHATIN 27/05/1968 JL. IRIAN 25 RT.004 RW.005 GEDANGSEWU KAB. K E D I R I
668 1300596079 WIJI RAHAYU 15/06/1964 JL. BEKU 2 RT.003 RW.003 SEMEN KAB. K E D I R I
669 1300597740 MOH. SAROJI 02/09/1969 DSN REMBANG RT.001 RW.004 REMBANG NGADI KAB. K E D I R I
670 1300597742 ISNAWATI 18/08/1972 REMBANG RT.01 RW.04 REMBANG NGADILUWIH KAB. K E D I R I
671 1300609327 SURYANINGRUM 20/09/1963 DSN. NGADILUWIH KAB. K E D I R I
672 1300617200 PURWADI 05/10/1969 JL. BRANTAS 59 NGEBLEK RT.002 RW.005 KAB. K E D I R I
673 1300626082 LUTHFI ZAKARIA , SE 23/07/1980 JL. PAMENANG GG SURYA 4 RT 001 RW 007 KAB. K E D I R I
674 1300643042 LINDA PURNAMASARI 09/06/1989 DSN. KRAJAN RT.001 RW.001 BRANGGAHAN KAB. K E D I R I
675 1300647884 JAMILAH 07/10/1948 DS. NGEBRAK RT.001 RW.003 NGEBRAK KAB. K E D I R I
676 1300672735 PARDINI 02/03/1961 DSN UTARA RT.001 RW.001 DUKUH KAB. K E D I R I
677 1300712152 SUPIYAH 01/07/1965 JL. MADUKORO RT.004 RW.002 BANYUANYAR KAB. K E D I R I
678 1300717913 AHMAD WILDAN ISNAINI 03/12/1982 JL. GAJAH MADA 21 RT 06 RW 1 KAB. K E D I R I
679 1300734409 DINEM 01/07/1926 JL. KUD DSN SENTUL RT.02 RW.01 TIRU LOR KAB. K E D I R I
680 1300734410 SUMARSIH 01/07/1966 JL. KAMPUNG SENTUL RT.002 RW.001TIRU LOR KAB. K E D I R I
723 1300955963 MUBIN ASRORI 03/04/1985 DSN KRAJAN KIDUL RT.002 RW.002 WONOJOYO KAB. K E D I R I
724 1300964524 LILIK ENDANG SUSILOWATI 08/08/1963 PERUM JENGGOLO INDAH I P.5 RT.027 RW.006 G KAB. K E D I R I
725 1300979868 SITI ULIFA TUR ROHMAH 15/06/1976 [Link] UTARA 001/002 KAB. K E D I R I
726 1300986762 ROBIYAH 29/06/1949 DSN TEGALREJO RT.001 RW.002 KAB. K E D I R I
727 1300997246 MASRUR 09/05/1963 DSN TEMPURSARI RT.03 RW.01 SUKOANYAR MO KAB. K E D I R I
728 1301006734 SUMIATUN 16/06/1972 DSN SETONOREJO RT.003 RW.001 SETONOREJO KAB. K E D I R I
729 1301008723 AHMAD RIZQI ALIMA FABRI 14/02/1993 DSN KUNIR RT 02/01 BULUPASAR PAGU KAB. K E D I R I
730 1301008727 FAIZ TSAUBAN ALIMA FAZARI 08/09/1998 KUNIR RT.002 RW.001 BULUPASAR PAGU KAB. K E D I R I
731 1301019354 SRI UMMI 07/09/1956 DSN NGADILOYO RT/RW 004/005 NGADILUWIH KAB. K E D I R I
732 1301021486 HARI KARTONO 20/04/1963 JL JOYOBOYO GG CENDANA RT/RW 022/003 KAR KAB. K E D I R I
733 1301030704 NUR ROAZAH 17/03/1973 DSN BABAL RT/RW 002/004 NGADI MOJO KAB. K E D I R I
734 1301032503 SUNARTI 06/11/1962 DSN BESUK RT/RW 006/002 BESUK GURAH KAB. K E D I R I
735 1301035542 CHOIRIYAH 09/05/1961 DS PLAOSAN RT/RW 027/006 PLAOSAN KAB. K E D I R I
736 1301035544 ANIS KULIYAH 16/04/1968 DSN TAWANG RT/RW 010/003 TAWANG KAB. K E D I R I
737 1301036804 M TAUFIQ HIDAYATULLAH 26/06/1975 DSN SUKOHARJO RT/RW 001/004 SUKOHARJO KAB. K E D I R I
738 1301037305 RURIN ANI NADIFAH 03/01/1986 DSN GERDU RT/RW 003/001 BANGSONGAN KAB. K E D I R I
739 1301049710 WILDAN NIZZAR SABASTIAN 22/06/1996 DSN JATISARI RT.005 RW.002 KEPUNG KAB. K E D I R I
740 1301059648 AGUS SANTOSO 03/12/1969 JL BALI SUMBER BIRU RT 001 RW 018 KAB. K E D I R I
741 1301062459 NUR FAIDA 15/11/1965 JABANG SELATAN RT 001 RW 007 KAB. K E D I R I
742 1301072176 MUJIANTO 10/09/1959 DSN BRENGGOLO RT 003 RW 001 KAB. K E D I R I
743 1301082483 TAMBAH 01/07/1931 DSN JIMUS RT 012 RW 003 KAB. K E D I R I
744 1301082606 SUMARNI 07/09/1957 DSN KENCONG BARAT RT 016 RW 003 KAB. K E D I R I
745 1301086934 SUKATUN 12/07/1966 JL REMBANGKEPUH RT 003 RW 002 KAB. K E D I R I
746 1301089005 ROFIUL HIDAYAH 13/01/1976 JL SEKOLAHAN BOLOREJO RT 004 RW 001 KAB. K E D I R I
747 1301090847 GALANG INDRI MUNARINI 07/12/1997 DSN KALASAN RT 001 RW 010 KAB. K E D I R I
748 1301091604 MUHAMMAD IQBAL SHOLAHUDDIN 20/01/1981 DSN GAPUK RT 002 RW 009 KAB. K E D I R I
749 1301094141 WAHYUDI SETIAWAN 07/07/1994 DSN. RINGINREJO RT 001 RW 002 KAB. K E D I R I
750 1301094234 NGATMINI 01/07/1929 DSN BLORAN RT 002 RW 008 KAB. K E D I R I
751 1301096595 BINTI MASRUROH 12/04/1971 DUSUN MANYAREJO RT 002 RW 001 KAB. K E D I R I
752 1301102318 USWATUN CHASANAH 17/05/1975 JL SEKOLAHAN BOLOREJO RT 004 RW 001 KAB. K E D I R I
753 1301109945 PUTRI NUR KHARISMA 02/01/1996 DUSUN WOROMARTO RT1 RW3 PURWOASRI KAB. K E D I R I
754 1301117709 DIAJENG NABELLA 01/04/1999 DSN WOROMARTO RT 001 RW 003 KAB. K E D I R I
755 1301118888 M. NUR FAISHOL AMIR 12/02/1982 DUSUN BARAN RT 001 RW 001 KAB. K E D I R I
756 1301119841 SAIFUL MA'ARIF 01/02/1973 DSN MOJOSARI RT 01 RW 02 KAB. K E D I R I
757 1301119922 SULISTYORINI 11/04/1973 DSN KASEMBON RT 002 RW 002 KAB. K E D I R I
758 1301121660 FIKAL MAZID 13/07/1990 JL. RAYA PURWOASRI RT 004 RW 002 KAB. K E D I R I
759 1301122945 AMRULIA ARWIN 02/04/1989 DSN KAMBINGAN RT 001 RW 002 KAB. K E D I R I
760 1301124201 NURUL CHOLIFAH 07/05/1978 KALIAWEN BARAT RT 004 RW 008 KAB. K E D I R I
761 1301125533 KHOLIS WIDODO 05/11/1978 DSN BATAN RT 003 RW 002 KAB. K E D I R I
762 1301126832 NILA NURI PURBAYA 10/09/1994 DSN BENDOSARI RT 005 RW 002 KAB. K E D I R I
763 1301126855 REZA AL UBAIDAH 21/09/1995 DSN BANGI RT 003 RW 006 KAB. K E D I R I
764 1301140329 PAELAN 18/05/1958 DSN NGRECO,RT 004 RW 001 KAB. K E D I R I
765 1301141113 ST. LATIFAH 15/12/1970 DSN KENCONG TIMUR RT 033 RW 006 KAB. K E D I R I
766 1301141916 TRICAHYO BUDI SUSILO 06/09/1971 DSN KAUMAN RT 001 RW 003 KAB. K E D I R I
767 1300169553 THOWILUDIN HUSADA 17/08/1966 KALILANANG RT03/RW09 RINGINREJO KEDIRI KAB. K E D I R I
768 1300265565 ANIK MATUS SOIMAH 04/12/1977 SAMBI RT.001 RW.003 KAB. K E D I R I
769 1300312226 AKHMAD SUNARDI 10/03/1977 JARAKAN RT.001 RW.001 KAB. K E D I R I
770 1300336668 SUJITO, H 07/08/1956 KARANGANYAR RT 007 RW 002 KAB. K E D I R I
771 1300342542 ANDHY EKA RAHMA AMINUDDIN 13/08/1977 GEMENGGENG RT 13 RW 05 KAB. K E D I R I
772 1300347184 SURAT EKO SUSANTO 06/06/1949 BUDI MULYO KAB. K E D I R I
773 1300349933 SUMIATI 12/01/1948 MINGGIRAN RT 003 RW 002 KAB. K E D I R I
774 1300354172 INDRA BAYU DONNY PRATYONO 01/01/1998 JL JAWA RT/RW 01/03 KAB. K E D I R I
775 1300358166 HADI SAI 27/07/1944 GAPUK RT 002 RW 010 KAB. K E D I R I
776 1300369445 MOHAMAD MOID 04/05/1972 WONOREJO RT 005 RW 002 KAB. K E D I R I
777 1300376277 FAIMAH 08/03/1982 DSN SUMBERSOKO RT 002 RW 012 KAB. K E D I R I
778 1300376287 ABDUL KARIM 08/07/1972 DSN SUMBERSOKO RT 002 RW 012 KAB. K E D I R I
779 1300378081 IMAM BANU 05/12/1952 GAMBYOK RT.002 RW.005 KAB. K E D I R I
780 1300384125 ABDUL NASIR BADRUS ARIF. H 12/11/1958 JL RAYA PURWOASRI RT 004 RW 002 KAB. K E D I R I
781 1300385504 FITRIA DWI ARYNINGTIYAS 28/07/1982 SUSUHBANGO RT 003 RW 002 KAB. K E D I R I
782 1300386550 RADEA DESNANDA GITA SESA 02/12/1996 PURWOKERTO RT 03 RW 03 KAB. K E D I R I
783 1300393690 SARI PRITI BASRINI 25/09/1968 JL PAMENANG IV/D7 RT/RW 02/07 KAB. K E D I R I
784 1300394934 ROSYADA SALSABILA 29/07/2000 BOLOWONO RT 001 RW 007 KAB. K E D I R I
785 1300395717 MURSIDI 04/04/1966 MULYOREJO RT.004 RW.001 KAB. K E D I R I
786 1300395751 MISTIANA 07/05/1973 MULYOREJO RT.004 RW.001 KAB. K E D I R I
787 1300411368 MOHAMAD MUJIB 05/09/1968 SUMBERKEPUH RT 025 RW 006 KAB. K E D I R I
788 1300411372 NORSANI 10/10/1970 SUMBERKEPUH RT 025 RW 006 KAB. K E D I R I
789 1300412516 SAMSUL MUNTOLIB ST 15/01/1978 NGADILUWIH RT 002 RW 003 KAB. K E D I R I
790 1300418417 LAYINA 30/11/1955 JL JOMBANG RT 001 RW 011 KAB. K E D I R I
791 1300433632 ZAINUL FUAT 04/05/1967 DLOPO RT.024 RW.003 KAB. K E D I R I
792 1300440516 ALFIAH 25/08/1977 TIRTO MULYO RT.012 RW.003 KAB. K E D I R I
793 1300441695 MUHTAROM 30/12/1967 DSN. MENANG RT.003 RW.003 DS. MENANG KEC. KAB. K E D I R I
794 1300445467 SUTIRAH 03/01/1944 JABON RT.003 RW.002 KAB. K E D I R I
795 1300447840 ABDUL NASIR BADRUS 12/11/1958 JL RAYA PURWOASRI RT 04 RW 02 KAB. K E D I R I
796 1300448277 WARSINI 23/08/1967 NGELOWAN RT 014 RW 004 KAB. K E D I R I
797 1300452894 SUPIN 12/06/1958 BABADAN RT.022 RW.006 KAB. K E D I R I
798 1300456773 SITI JUWARIYAH 11/04/1977 JL. MELATI RT.039 RW.007 DOKO NGASEM KEDI KAB. K E D I R I
799 1300460234 WINARNI 30/05/1974 BELOR RT.003 RW.001 KAB. K E D I R I
800 1300460237 CHOLIS AGUSTIONO 16/08/1970 BELOR RT.003 RW.001 KAB. K E D I R I
801 1300464720 IMAM AFANDI 17/07/1942 DSN. JATI SARI RT 004 RW 002 KAB. K E D I R I
802 1300466732 KUN MISBAH SHOLEHUDIN 02/06/1977 DSN NGADILUWIH RT.004 RW.004 KAB. K E D I R I
803 1300466896 SUPARMI 01/07/1961 DSN KENCONG TIMUR RT.032 RW.006 KAB. K E D I R I
804 1300468677 LILIK MUNAWAROH 09/04/1970 JL. ARGOWILIS RT.002 RW.008 KAB. K E D I R I
805 1300470530 ABDUL MUTHOLIB 12/12/1940 DSN NGELOWAN RT.33 RW.07 KAB. K E D I R I
806 1300471625 RITA NURUL QOMARIYAH 05/05/1998 JL. ANGGREK RT.02 RW.02 KAB. K E D I R I
807 1300472806 MOCHAMAD RIDWAN 12/09/1969 DSN BOROLOR RT.002 RW.002 KAB. K E D I R I
808 1300475110 SITI NURIYAH 19/08/1939 DSN TUNGLUR RT.002 RW.003 KAB. K E D I R I
809 1300476786 ODRIFAZA GIRINDRA WEDHATAMA 27/04/1999 [Link] INDAH H15 RT.004 RW.006 KAB. K E D I R I
810 1300476788 TUNGGAL WIJAYANTI 04/07/1963 [Link] INDAH H15 RT.025 RW.006 KAB. K E D I R I
811 1300481722 TIFFANY RESTIA ROFIS 14/01/1989 DSN KUNJANG KIDUL RT.004 RW.001 KAB. K E D I R I
812 1300483888 MOH. ZAHRUL AN AM 07/02/1988 DSN BOGO RT.002 RW.007 KAB. K E D I R I
813 1300483902 MOH FREGY SUSANTO 25/12/1980 DSN BOGO RT.002 RW.007 KAB. K E D I R I
814 1300485411 H.M. SULAIMAN LUBIS 11/09/1960 DSN KAPI RT.003 RW.002 KAB. K E D I R I
815 1300487081 BILQIS CHOTIMATUS SALMA 21/07/2002 SATREYAN RT.02 RW.02 KAB. K E D I R I
816 1300489215 SUYANI 25/06/1978 DSN KRAPYAK RT.006 RW.007 KAB. K E D I R I
817 1300492092 SULAMI 12/07/1976 DSN. BEJI RT 003 RW 001 KAB. K E D I R I
818 1300496080 MOENTINI 17/07/1949 DSN. KOLAK RT 002 RW 001 KAB. K E D I R I
819 1300501226 ELYANA IRAWATI 08/07/1979 DSN. GONDANG RT 003 RW 001 KAB. K E D I R I
820 1300501228 SUSIATI 26/05/1965 DSN. GONDANG RT 003 RW 001 KAB. K E D I R I
821 1300501315 FAUZIAH RETNO PUJIASTUTI [Link] 12/10/1969 DSN. PUHJAJAR RT 007 RW 001 KAB. K E D I R I
822 1300501320 DRS. EC. MANU ATMOJO 03/08/1962 DSN. PUHJAJAR RT 007 RW 001 KAB. K E D I R I
823 1300502827 THOLIBIN 26/04/1954 TANJUNG RT.004 RW.003 KAB. K E D I R I
824 1300507256 TUTIANAH 08/03/1964 DSN KRATON RT.002 RW.006 KAB. K E D I R I
825 1300508402 MASPUPAH 30/08/1949 DS MARON RT.002 RW.002 KAB. K E D I R I
826 1300509925 ASNANUL MUNIR 19/01/1997 DSN WONOREJO RT.003 RW.001 KAB. K E D I R I
827 1300510096 TITIK NUR GHOZIAH 27/02/1975 DSN JAMBEAN RT.001 RW.001 KAB. K E D I R I
828 1300510872 SULVANA HAYATI 27/08/1981 DSN BUDI MULYO RT.002 RW.003 KAB. K E D I R I
829 1300513335 INDRA MUTTAQIN 03/09/1991 DSN DAWUNG RT.004 RW.002 KAB. K E D I R I
830 1300513973 PAIDI RAHARJO 04/05/1959 DUSUN KRANGGAN RT.004 RW.002 KAB. K E D I R I
831 1300514738 MOCHAMAD KAMBALI 11/06/1983 JL. SULAWESI RT.002 RW.009 KAB. K E D I R I
832 1300515349 ETIK WARNIDA, [Link] 23/12/1961 [Link] POLIM JOMBANGAN RT.002RW.01 KAB. K E D I R I
833 1300515353 ALI GUNAWAN, [Link] 05/06/1956 [Link] POLIM JOMBANGAN RT.002RW.010 KAB. K E D I R I
834 1300515358 HILDA KURNIASARI SOLEH 03/01/1995 DSN TAWANG RT.001 RW.002 KAB. K E D I R I
835 1300515948 MIATI KASANAH 05/04/1979 DSN JASEM RT.011 RW.004 KAB. K E D I R I
836 1300516239 SULAIMAN 13/11/1958 DSN NGRAJEK RT.017 RW.006 KAB. K E D I R I
837 1300516241 MISTIANI 05/12/1966 DSN BRUMBUNG RT.021 RW.006 KAB. K E D I R I
838 1300516242 GIYEM 12/12/1958 DSN NGRAJEK RT.017 RW.006 KAB. K E D I R I
839 1300517600 MUNAWAR 01/09/1944 JL. JAKA MUDA RT.001 RW.004 KAB. K E D I R I
840 1300517617 BRIANA RATNA INDRATININGSIH 20/01/1979 BULUREJO RT.001 RW.002 KAB. K E D I R I
841 1300517972 UMI NADLIROH 20/03/1978 DSN BUKUR RT.002 RW.002 KAB. K E D I R I
842 1300518700 SOFI EMININGSIH 07/05/1964 NGLETIH TIMUR RT.002 RW.001 KAB. K E D I R I
843 1300518764 FEBRI DIYAN FATMAWATI 15/02/1997 DUSUN NGLETIH BARAT RT.08 RW.00 KAB. K E D I R I
844 1300518769 SUGIANTO 10/12/1966 DSN NGLETIH BARAT RT.008 RW.000 KAB. K E D I R I
845 1300518771 ASNAH 29/12/1974 DSN NGLETIH BARAT RT.008 RW.000 KAB. K E D I R I
846 1300518775 MOCH. ABIM ZAKARIA 01/05/1999 DSN NGLETIH BARAT RT.08 RW.00 KAB. K E D I R I
847 1300519186 SUMINA MISTARI 31/12/1951 JL. TEGALAN RT.005 RW.004 KAB. K E D I R I
848 1300519375 RANI KUSUMA WATI 25/08/1978 DSN SUMBER WANGI RT.003 RW.001 KAB. K E D I R I
849 1300519384 DR. IMAN PRIBADI 09/11/1974 DSN SUMBER WANGI RT.003 RW.001 KAB. K E D I R I
850 1300519937 DAMINEM 15/11/1946 JL. RAYA RT.001 RW.004 KAB. K E D I R I
851 1300519962 SITI KALIMAH 25/04/1968 DSN CANGKRING RT.001 RW.007 KAB. K E D I R I
852 1300519964 SUGENG PRAYITNO 07/08/1969 DSN CANGKRING RT.001 RW.007 KAB. K E D I R I
853 1300521073 SUKARMI 19/05/1961 JL. ALAP-ALAP WATES RT.008 RW.003 KAB. K E D I R I
854 1300522136 H. ABDUL HAKIM 02/02/1975 DSN NGADILUWIH RT.002 RW.001 KAB. K E D I R I
855 1300522832 HJ. SITI CHOIRIYAH 03/05/1953 DSN. GADUNGAN RT 001 RW 006 KAB. K E D I R I
856 1300523015 YUSUF 01/02/1959 SUSUHBANGO SELATAN RT.002 RW.001 KAB. K E D I R I
857 1300523301 H. MOH. SAKUR 01/01/1962 DAYU RT.002 RW.003 KAB. K E D I R I
858 1300523732 SUHADI WIYONO 28/07/1975 JL. RA. KARTINI RT.001 RW.016 KAB. K E D I R I
859 1300523800 SODIK 29/11/1961 KUNJANG RT.001 RW.001 KAB. K E D I R I
860 1300524151 BADRUL MUNIR 15/09/1965 DSN. GONDANG RT.03 RW.02 KAB. K E D I R I
861 1300525921 DJAZULI 01/07/1953 DSN. PILANGBANGO RT 005 RW 003 KAB. K E D I R I
862 1300526228 MURTIJAN 02/04/1955 DSN. BUKAAN RT 004 RW 002 KAB. K E D I R I
863 1300526859 MISBAKUL MUNIR 23/04/1966 DSN BANARAN RT.001 RW.008 KAB. K E D I R I
864 1300526860 ANIK SUNARTI 09/02/1979 DSN BANARAN RT.001 RW.008 KAB. K E D I R I
865 1300527400 JAMILATUN, [Link] 13/12/1962 DSN JIMUS RT.014 RW.003 KAB. K E D I R I
866 1300528853 PRIMA AHMAD WIHARDI 06/01/1986 DSN SARASEHAN RT.003 RW.001 KAB. K E D I R I
867 1300529255 SITI MUZAYANAH 02/03/1961 JL. MAKMUR RT.003 RW.002 KAB. K E D I R I
868 1300529256 MISBACHUL CHOIRUDIN 02/01/1985 JALAN MAKMUR RT.003 RW.002 KAB. K E D I R I
869 1300530974 BUDI MASTUTI 25/08/1976 JL. BRAWIJAYA 16 SINGGAHAN RT.001 RW.012 KAB. K E D I R I
870 1300531737 MOHAMAD SUJONO 12/02/1968 DSN. NGRAJEK RT 018 RW 006 KAB. K E D I R I
871 1300531739 TITIK SUNTARI 29/05/1966 DSN. NGRAJEK RT 19 RW 06 KAB. K E D I R I
872 1300532121 NUR HASANAH 13/08/1981 DSN SUMBEREJO RT.002 RW.003 KAB. K E D I R I
873 1300532122 KHAFID AL FAQIH 27/05/1975 DSN SUMBEREJO RT.001 RW.001 KAB. K E D I R I
874 1300532395 SITI ALPIYAH 01/12/1961 DUSUN GAMBYOK RT.001 RW.004 KAB. K E D I R I
875 1300532799 ANJAR MUHAJAROH 25/10/1974 DSN SUROWONO RT.001 RW.023 KAB. K E D I R I
876 1300533099 ENDANG SUSILOWATI 08/05/1961 DSN. GEMENGGENG RT 014 RW 006 KAB. K E D I R I
877 1300534280 AINUR ROFI' 10/09/1969 DSN SAGI RT.003 RW.007 KAB. K E D I R I
878 1300534286 SAIFUDIN, BA 24/11/1960 NGRECO RT.001 RW.003 KAB. K E D I R I
879 1300535714 SUKADI 21/11/1974 DSN BOLOREJO RT.035 RW.000 KAB. K E D I R I
880 1300535723 KARIYANI 10/09/1980 DSN BOLOREJO RT.035 RW.000 KAB. K E D I R I
881 1300536137 BIBIT HIDAYATI 12/06/1966 DSN. PELEM RT.002 RW.002 KAB. K E D I R I
882 1300536444 RUMIATUN 04/02/1960 DSN CALONAN RT.001 RW.006 KAB. K E D I R I
883 1300536624 NAJWA FITRIYAH 04/09/1996 DS. WONOREJO RT.01 RW.04 KAB. K E D I R I
884 1300537135 MUDRIKATUL AZIZAH 02/01/1990 DSN. BUKAAN RT.005 RW.002 KAB. K E D I R I
885 1300537257 HAMDANI MUBAROK 08/05/1995 DSN. KROMASAN RT.017 RW.005 KAB. K E D I R I
886 1300537259 SITI RODIYAH 15/04/1964 DSN. KROMASAN RT.017 RW.005 KAB. K E D I R I
887 1300538071 LAILI NIAMI FAIZZA 23/07/1997 DSN. SUMBERSARI RT.016 RW.006 KAB. K E D I R I
888 1300538074 HERI GUNAWAN 06/04/1970 DSN. SUMBERSARI RT.016 RW.006 KAB. K E D I R I
889 1300538131 MOCHAMMAD AMINUDDIN 04/10/1973 DSN. NGANCAR RT.003 RW.003 KAB. K E D I R I
890 1300540616 NUR HUDA SETIAWAN 21/08/1982 DSN. BIBIS RT.001 RW.001 KAB. K E D I R I
891 1300540730 DAMUN 05/10/1959 DSN. NGROMBEH RT.001 RW.003 KAB. K E D I R I
892 1300542197 PURWANDI 30/12/1967 DSN. SAMBIRESIK RT.004 RW.002 KAB. K E D I R I
893 1300542322 ANINDITA MAULIDIYAH 27/07/1996 DSN. SUMBERBENING RT.047 RW.013 KAB. K E D I R I
894 1300542354 AINUR ARISANDI 22/07/1977 JL. JAWA NO. 6 A PUHREJO RT.001 RW.018 KAB. K E D I R I
895 1300543807 ANGELINA SALSABILA AZ ZAHRA 13/08/2004 JL. RAYA JONG BIRU RT.010 RW.002 KAB. K E D I R I
896 1300544686 MUHAMMAD RIZQI ADI PRADANA 07/03/1990 DSN. BECEK RT 03 RW 04 KAB. K E D I R I
897 1300544868 SHOLIHIN 09/06/1973 DAWUNG RT.002 RW.001 KAB. K E D I R I
898 1300545648 BUDI SANTOSO 15/03/1967 DSN MLOYO RT.001 RW.002 KAB. K E D I R I
899 1300545649 YULIATI 07/08/1973 DSN MLOYO RT. 001 RW.002 KAB. K E D I R I
900 1300545655 SUGENG SUPRIADI 02/11/1976 DSN MOJO RT.002 RW.003 KAB. K E D I R I
901 1300545864 KUSNATUL MEGA RAHMAWATI 03/01/1975 DSN BOYOLALI RT.001 RW.001 KAB. K E D I R I
902 1300545898 AHMAD ILHAMI 22/10/1978 DSN KEJURON RT.001 RW.003 KAB. K E D I R I
903 1300545906 HAYATUN 27/06/1947 DSN KEJURON RT.001 RW.003 KAB. K E D I R I
904 1300545967 MAS'UD CHOZIN 07/07/1937 DS. PLOSOREJO RT.01 RW.03 KAB. K E D I R I
905 1300546410 NURHAYATI 19/11/1983 DSN CANGKRING RT.001 RW.007 KAB. K E D I R I
906 1300546412 YOKO PRASETYO 03/06/1980 DSN CANGKRING RT.001 RW.003 KAB. K E D I R I
907 1300546529 SITI RUQOIYAH 04/06/1958 DSN NGEMPLAK RT.001 RW.003 KAB. K E D I R I
908 1300546639 MUSTIAMAH 01/07/1961 DSN BLABAK RT.002 RW.004 KAB. K E D I R I
909 1300547252 SITI CHABIBAH 10/01/1962 JL. MATAHARI PUHREJO RT.004 RW.018 KAB. K E D I R I
910 1300547367 TUGIMAN 09/10/1956 JL. MASJID RT.002 RW,001 KAB. K E D I R I
911 1300547370 YATIMATUL SAFA'ATIN 03/06/1963 JL. MASJID RT.002 RW.001 KAB. K E D I R I
912 1300547372 SITI MARFUAH 03/03/1972 DSN GADUNGAN RT.012 RW.005 KAB. K E D I R I
913 1300547378 AHMAD MUDAWIM 14/07/1967 DSN GADUNGAN RT.012 RW.005 KAB. K E D I R I
914 1300548203 LAILI MUTOHAROH, HJ 03/07/1963 DSN JENGGOLO RT.005 RW.004 KAB. K E D I R I
915 1300548204 MAKRUS, H 08/12/1957 DSN JENGGOLO RT.007 RW.003 KAB. K E D I R I
916 1300548282 SAMSUL ARIFIN 11/07/1967 JL. GAJAH MADA RT.005 RW.001 KAB. K E D I R I
917 1300548286 SITI ARIFAH 03/07/1972 JL. GAJAH MADA RT.005 RW.001 KAB. K E D I R I
918 1300548399 KHOTIM MATUN NISA' 20/07/1993 DSN. BANARAN RT.002 RW.006 KAB. K E D I R I
919 1300548537 SULAMI 16/08/1968 DSN SUKOREJO RT.001 RW.002 KAB. K E D I R I
920 1300548541 MUKAROM 27/02/1960 DSN SUKOREJO RT.001 RW.002 KAB. K E D I R I
921 1300548610 SUMILAH 01/07/1958 DSN PLUNCING RT.003 RW.002 KAB. K E D I R I
922 1300548612 MOBIN 01/07/1953 DSN PLUNCING RT.003 RW,002 KAB. K E D I R I
923 1300548637 SULASIH 11/04/1982 DSN BANJAREJO RT.002 RW.010 KAB. K E D I R I
924 1300548642 SISWANTO 06/09/1973 DSN BANJAREJO RT.002 RW.010 KAB. K E D I R I
925 1300548646 DEWI NURKHOLIFAH 14/01/1978 BANJARJO RT.001 RW.007 KAB. K E D I R I
926 1300548649 SUGIARTO, SE 05/07/1977 BANJARJO RT.001 RW.007 KAB. K E D I R I
927 1300548940 H. KHAYATUDIN, SH, [Link] 27/10/1964 DSN KENDAL DOYONG RT.003 RW.002 KAB. K E D I R I
928 1300548942 DWI RINA HARIYANTI, BA 01/11/1967 KENDALDOYONG RT.003 RW.002 KAB. K E D I R I
929 1300548964 ZAENUDIN 02/08/1960 DSN BLORAN RT.002 RW.015 KAB. K E D I R I
930 1300548966 SHOLIKATON 08/09/1960 DSN BLORAN RT.002 RW.015 KAB. K E D I R I
931 1300549175 TRI SUBEKI NOVIAWATI 21/10/1994 DS. PADANGAN RT.001 RW.004 KAB. K E D I R I
932 1300549285 ABDUL ADHIM 12/04/1967 DSN SEMEN RT.010 RW.005 KAB. K E D I R I
933 1300549308 LUTFI ASHARI 03/04/1993 GONDANG REJO RT.001 RW.001 KAB. K E D I R I
934 1300549347 FATIHUL HUDA 20/10/1970 JL. INDRA PURA 02 RT.002 RW.001 KAB. K E D I R I
935 1300549386 MUHAMMAD DEDY EKO TRISYONO SAFARI, SE,A 13/03/1974 JL. ARGOWILIS NO.774 RT.004 RW.008 KAB. K E D I R I
936 1300549389 SRI WAHYUNI, STP 06/05/1975 JL. ARGOWILIS NO.774 RT.004 RW.008 KAB. K E D I R I
937 1300549420 VIONA REZA ALMIRA 26/09/1996 DSN PAYAMAN RT.001 RW.003 KAB. K E D I R I
938 1300549431 SRI RAHAYU 09/08/1974 DSN PAYAMAN RT.001 RW.003 KAB. K E D I R I
939 1300549505 DIAH RETNOWATI 20/06/1960 DSN KADEMANGAN RT.001 RW.002 KAB. K E D I R I
940 1300549750 MUDJIONO 10/06/1947 DSN TAMANAN RT.003 RW.002 KAB. K E D I R I
941 1300549815 ERIE ANA 10/01/1978 JL. A. YANI 07 RT.002 RW.001 KAB. K E D I R I
942 1300549948 SUTI'AH 10/12/1952 DSN BAJULAN RT.001 RW.001 KAB. K E D I R I
943 1300549949 ABU MANSUR 20/05/1965 DSN BAJULAN RT.001 RW.001 KAB. K E D I R I
944 1300549952 USWATUN KHASANAH 02/03/1972 DSN BAJULAN RT.001 RW.001 KAB. K E D I R I
945 1300550075 HARIYANTO, SPD 13/01/1958 DSN MEDIUNAN RT.002 RW.002 KAB. K E D I R I
946 1300550076 SUNARTIYAH 30/10/1963 DSN MEDIUNAN RT.002 RW.002 KAB. K E D I R I
947 1300550302 BANGET SUROSO 04/01/1967 JL. DANDANG GENDIS RT.004 RW.004 KAB. K E D I R I
948 1300550308 DIAH WINARNI 28/01/1967 JL. DANDANG GENDIS RT.017 RW.004 KAB. K E D I R I
949 1300550347 PAINI 23/08/1951 JALAN KENCONO WUNGU RT.001 RW.002 KAB. K E D I R I
950 1300550416 MUNJIAH 27/11/1959 JL. HUSNI THAMRIN NO.205 A RT.004 RW.008 KAB. K E D I R I
951 1300550490 SURYAN 06/08/1959 DSN TAMBAK RT.002 RW.007 KAB. K E D I R I
952 1300550491 M. BADILAH 08/08/1972 DSN TAMBAK RT.002 RW.009 KAB. K E D I R I
953 1300550493 SITI SAODAH 04/12/1965 DSN TAMBAK RT.001 RW.009 KAB. K E D I R I
954 1300550508 SITI MUNAWAROH 15/12/1982 DSN TAMBAK RT.001 RW.009 KAB. K E D I R I
955 1300550512 ANIK MUKHLISOH 01/06/1965 JL. PAMENANG RT.002 RW.007 KAB. K E D I R I
956 1300550514 IRFAN PRATAMA PUTRA 17/03/1986 DSN TAMBAK RT.002 RW.007 KAB. K E D I R I
957 1300550515 MOCHAMMAD ABDUL WAHAB 12/09/1962 JL. PAMENANG RT.002 RW.007 KAB. K E D I R I
958 1300550614 BAJURI, BA 07/08/1954 DSN TANJUNGSARI RT.002 RW.001 DS KAPI KEC KAB. K E D I R I
959 1300550616 SULISTYOWATI 16/04/1960 JL. RAMBUTAN NO.139 RT.001 RW.014 KAB. K E D I R I
960 1300550622 SULARDJI 17/10/1958 JL RAMBUTAN NO.139 RT.001 RW.014 KAB. K E D I R I
961 1300550781 NURMAKIN 06/11/1954 JL. IMAM BONJOL RT.004 RW.002 KAB. K E D I R I
962 1300550783 SITI MUNAKIP 04/12/1965 JL. IMAM BONJOL RT.004 RW.002 KAB. K E D I R I
963 1300550798 MISNUN 01/11/1971 DSN PUHRUBUH RT.002 RW.001 KAB. K E D I R I
964 1300550799 SULASTRI 26/12/1960 DSN MIRIGEROT RT.016 RW.003 KAB. K E D I R I
965 1300551132 SITI MUNAWAROH 08/08/1949 DSN BANARAN RT.001 RW.008 KAB. K E D I R I
966 1300551137 IDA SULISTYANI 04/08/1971 PERUM JENGGOLO INDAH II BLOK A NO 4 KAB. K E D I R I
967 1300551139 MIRTHASARI PALUPI 13/06/1977 JL. DR. WAHIDIN NO.03 RT.002 RW.001 KAB. K E D I R I
968 1300551141 SUTAYA 06/06/1967 PERUM JENGGOLO INDAH IIA4 RT.005 RW.001 KAB. K E D I R I
969 1300551146 MOH. SHOLIKHUDIN, SE 21/09/1971 DSN BANARAN RT.001 RW.008 KAB. K E D I R I
970 1300551149 WIDHI RAKHMAD WIDAYA 21/10/1970 DR. WAHIDIN 3 PELEM RT.002 RW.001 KAB. K E D I R I
971 1300551150 YENI ANGGOROWATI 28/03/1973 DR. WAHIDIN 3 PELEM RT.002 RW.001 KAB. K E D I R I
972 1300551190 KHALIMI 28/07/1962 DESA PUTIH RT.003 RW.004 KAB. K E D I R I
973 1300551309 WARMINTO 28/08/1962 DSN KALASAN RT.002 RW.009 KAB. K E D I R I
974 1300551313 RUMI AIDA MUSTOFA 22/11/1963 DSN KALASAN RT.003 RW.009 KAB. K E D I R I
975 1300551338 MUKLASON 16/11/1965 DSN KENTON RT.002 RW.002 KAB. K E D I R I
976 1300551339 OKTA NUR RAHMAWATI 05/10/1972 DSN KENTON RT.002 RW.002 KAB. K E D I R I
977 1300551340 YUSRAN WAHONO 28/12/1965 DSN KENTON RT.001 RW.002 KAB. K E D I R I
978 1300551341 SULISTYANINGSIH 05/03/1963 DSN KENTON RT.002 RW.002 KAB. K E D I R I
979 1300551342 KARJI 08/03/1949 DSN KENTON RT.002 RW.002 KAB. K E D I R I
980 1300551343 KASINI 30/11/1955 DSN. GAYAM RT.003 RW.007 DS. GAYAM KEC. M KAB. K E D I R I
981 1300551357 AHMAD NURUDIN 09/07/1967 DSN MANGUREJO RT.002 RW.001 KAB. K E D I R I
982 1300551372 AMINATUN ZUHRIYAH 18/07/1955 DSN MOJODUWUR RT.002 RW.001 KAB. K E D I R I
983 1300551382 SATRIA AULIA BANI ADAM 11/07/1999 DSN DAWUNG RT.01 RW.02 KAB. K E D I R I
984 1300551412 HARYONO ACHMAD 17/09/1953 JL. ARGOWAYANG LK III RT.038 RW.011 KAB. K E D I R I
985 1300551413 ERNA ZULIANA 05/06/1977 JL. PINANG 36 RW.002 RW.012 KAB. K E D I R I
986 1300551416 MAKHI MIHARJO 04/09/1977 JL. PINANG 36 RT.002 RW.012 KAB. K E D I R I
987 1300551418 UMI RO'YIN 04/01/1958 JL. LANGKAT RT.002 RW.013 KAB. K E D I R I
988 1300551420 ABDUL WASIK 15/06/1980 JL. LANGKAT SINGGAHAN RT.001 RW.014 KAB. K E D I R I
989 1300551426 ZETTY ERLINA 11/11/1981 JL. LANGKAT SINGGAHAN RT.001 RW.014 KAB. K E D I R I
990 1300551452 MASRURI 13/04/1974 DSN BRENGGOLO RT.002 RW.001 KAB. K E D I R I
991 1300551453 MOCHAMMAD ROFI'I 10/12/1978 DSN BANJAREJO RT.001 RW.003 KAB. K E D I R I
992 1300551454 WIWIK SULASTRI HANDAYANI 15/05/1963 DSN BRENGGOLO RT.002 RW.001 KAB. K E D I R I
993 1300551463 CITRA SUDIYAN 04/05/1983 DSN BANJAREJO RT.001 RW.003 KAB. K E D I R I
994 1300551491 MUHAMMAD SOIM 03/09/1962 DSN NGRAJEK RT.010 RW.004 KAB. K E D I R I
995 1300551493 ISMILAH 26/06/1966 DSN NGRAJEK RT.010 RW.004 KAB. K E D I R I
996 1300551544 KUSNUL KHOTIMAH 19/09/1969 DSN NGAMPEL RT.002 RW.002 KAB. K E D I R I
997 1300551551 ABDUL MANAN 13/05/1966 DSN BATUMULYO RT.004 RW.007 KAB. K E D I R I
998 1300551573 MUHAMMAD JAMROJI 24/04/1968 DSN GEMENGGENG RT.011 RW.006 KAB. K E D I R I
999 1300551582 SUJANA 15/03/1963 BALONG JERUK RT.001 RW.001 KAB. K E D I R I
1000 1300551608 FATIMAH DEWI PURWANING AYU 16/02/1968 BALONG JERUK RT.001 RW.001 KAB. K E D I R I
1001 1300551714 ISTIQOMAH 08/03/1941 DSN TANJANG RT.001 RW.005 KAB. K E D I R I
1002 1300551754 MUDAWAMAH, [Link] 06/07/1976 DSN BANARAN RT.002 RW.006 KAB. K E D I R I
1003 1300551761 SAMSUL HADI, SE 01/03/1970 DSN BANARAN RT.002 RW.006 KAB. K E D I R I
1004 1300551972 SULASTRI 12/04/1965 DSN KEDUNGDOWO RT.002 RW.008 KAB. K E D I R I
1005 1300551973 KALUAR 04/05/1958 DSN KEDUNGDOWO RT.001 RW.008 KAB. K E D I R I
1006 1300552076 USWATUN KHASANAH 11/12/1959 DSN TAMBAN RT.001 RW.005 KAB. K E D I R I
1007 1300552230 AKHMAD ASKURI 12/11/1967 JL. CENDANA RT.003 RW.008 KAB. K E D I R I
1008 1300552232 SRI PURWORINI 13/07/1970 DSN POHBLEMBEM RT.003 RW.008 KAB. K E D I R I
1009 1300552285 WAHYU KURNIAWAN 24/05/1987 JL. PASAR 121 RT.002 RW.002 KAB. K E D I R I
1010 1300552291 EFFI INDRA YUSIANA 15/12/1977 JL. DR. SUTOMO RT.002 RW.001 KAB. K E D I R I
1011 1300552292 ADI ARDIAN 18/07/1977 JL. DR. SUTOMO NO.119 RT.002 RW.001 KAB. K E D I R I
1012 1300552314 NUR KOLIK 14/10/1964 JLN. SIKATAN RT.003 RW.001 KAB. K E D I R I
1013 1300552360 AGUS SARTONO 17/04/1978 BANGI RT.003 RW.006 KAB. K E D I R I
1014 1300552367 CHUSNUL KHOTIMAH 11/01/1979 DSN WOROMARTO RT.003 RW.006 KAB. K E D I R I
1015 1300552551 HJ. ARIFAH 12/12/1952 JL. JOYOBOYO RT.001 RW.001 KAB. K E D I R I
1016 1300552567 ARINNA FITRIA SUSIANI 02/12/1970 DSN KENDALDOYONG RT.003 RW.002 KAB. K E D I R I
1017 1300552699 YAYUK RAHAYUNINGSIH 20/10/1967 JL. PERKUTUT RT.002 RW.002 KAB. K E D I R I
1018 1300552704 AMINATUS SHOLIKHAH 20/06/1979 [Link] SINGGAHAN RT.002 RW.014 KAB. K E D I R I
1019 1300552705 ABDUL MALIK 18/09/1976 JL. LANGKAT SINGGAHAN RT.002 RW.014 KAB. K E D I R I
1020 1300552714 IMAM SOPINGI 17/12/1959 DSN DONGANTI RT.001 RW.002 KAB. K E D I R I
1021 1300552811 SUNI'AH 10/11/1963 DSN NAMBANGAN RT.001 RW.002 KAB. K E D I R I
1022 1300552814 DIAN ANDRI WAHYUNI 23/05/1992 DSN NAMBANGAN RT.001 RW.002 KAB. K E D I R I
1023 1300552910 SUNARSIH 11/02/1967 DSN TANJUNG RT.003 RW.003 KAB. K E D I R I
1024 1300552947 BUCHORI 04/05/1956 DSN MLANCU RT.002 RW.002 KAB. K E D I R I
1025 1300552996 MARLAN, [Link], S.H 08/09/1965 DUSUN SOBO RT.002 RW.001 KAB. K E D I R I
1026 1300552999 SITI ALFIAH 29/03/1981 DUSUN KRANGGAN RT.003 RW.002 KAB. K E D I R I
1027 1300553002 SUBANDIONO 02/02/1957 DSN KRANGGAN RT.003 RW.002 KAB. K E D I R I
1028 1300553004 SUHANDAYANI, [Link] 27/03/1968 DSN SOBO RT.002 RW.001 KAB. K E D I R I
1029 1300553025 SUMINI 21/07/1959 DSN JAMBEAN RT. 001 RW.001 KAB. K E D I R I
1030 1300553039 ISTIQOMAH, [Link] 12/03/1979 JL. KEMUNING 39 RT.008 RW.013 KAB. K E D I R I
1031 1300553046 MOHAMAD QOMAR 17/09/1971 JL. KEMUNING RT.008 RW.013 KAB. K E D I R I
1032 1300553069 SITI ZULAIKAH 20/06/1966 DSN POJOK RT.001 RW.003 KAB. K E D I R I
1033 1300553070 NURHAJI 31/12/1954 DSN POJOK RT.001 RW.003 KAB. K E D I R I
1034 1300553073 HARIANTO 26/10/1977 PERUM DOKO INDAH B36 RT.045 RW.008 KAB. K E D I R I
1035 1300553075 UMI FADILAH 08/08/1982 PERUM DOKO INDAH B36 RT.045 RW.008 KAB. K E D I R I
1036 1300553076 DEWI SUPRAPTI 08/01/1976 JONGBIRU RT.005 RW.002 KAB. K E D I R I
1037 1300553077 MARTINI 01/07/1959 JONGBIRU RT.005 RW.002 KAB. K E D I R I
1038 1300553366 YUNARI 01/07/1959 DSN BULUPASAR RT.002 RW.001 KAB. K E D I R I
1039 1300553434 NOVITA ASTRIANTI 29/11/1982 JL A. AYANI RT 005 RW 003 KRANGGAN KAB. K E D I R I
1040 1300553436 DURIYATI 01/06/1955 JL. RAYA CENDONO RT.014 RW.005 KAB. K E D I R I
1041 1300553439 RIZAL EFENDI 11/12/1978 JL. A. YANI RT 005 RW 003 KRANGGAN KAB. K E D I R I
1042 1300553442 ELFI RIYANA 25/06/1972 DSN NAMBAKAN RT.001 RW.001 KAB. K E D I R I
1043 1300553446 FATKHUR ROKHIM 18/08/1962 DSN NAMBAKAN RT.001 RW.001 KAB. K E D I R I
1044 1300553452 SURAT 06/11/1960 DSN NOLOSUTO RT.001 RW.006 KAB. K E D I R I
1045 1300553633 SRI WIDIANI 12/08/1962 DSN DADAPAN RT.002 RW.011 KAB. K E D I R I
1046 1300553641 HARIYANTO 03/01/1968 JL. PAMENANG RT.004 RW.004 KAB. K E D I R I
1047 1300553642 BADI YOELAIKAH 28/07/1968 JL. PAMENANG RT.005 RW.002 KAB. K E D I R I
1048 1300553644 MOHAMAD SONHAJI IDR 05/05/1955 DSN SEBANEN RT.001 RW.001 KAB. K E D I R I
1049 1300553647 IDA LATIFATUS ZAHRO 01/04/1965 DSN SEBANEN RT.001 RW.001 KAB. K E D I R I
1050 1300553650 BINTI KHOIRIYAH SAPUAN 01/07/1967 DSN BULUREJO RT.027 RW.007 KAB. K E D I R I
1051 1300553656 SITI MARIYAM MURI 15/10/1958 DSN BULUREJO RT.033 RW.008 KAB. K E D I R I
1052 1300553663 MUJIONO 22/06/1963 DSN BULUREJO RT.027 RW.007 KAB. K E D I R I
1053 1300553908 H. ABDUL HAKIM 02/02/1975 DSN NGADILUWIH RT.002 RW.001 KAB. K E D I R I
1054 1300554098 SRI FATIMAH 09/06/1958 DSN SENTUL RT.001 RW.001 KAB. K E D I R I
1055 1300554100 DWI NURKHOLIFAH 14/04/1983 DSN SENTUL RT.001 RW.001 KAB. K E D I R I
1056 1300554103 SODIK 31/01/1969 DSN PUHJAJAR RT.003 RW.001 KAB. K E D I R I
1057 1300554108 KASRI 12/03/1973 DSN PUHJAJAR RT.003 RW.001 KAB. K E D I R I
1058 1300554178 SITI MUKHOLIMAH 07/08/1965 DS. TOYORESMI RT.001 RW.002 KAB. K E D I R I
1059 1300554186 NANIK SETIAWAN 20/04/1982 BLAWE RT.002 RW.001 KAB. K E D I R I
1060 1300554188 BUDIANTO 18/07/1970 BLAWE RT.002 RW.001 KAB. K E D I R I
1061 1300554200 SITI NGAISAH 18/08/1956 DSN DUNGPUNG RT.014 RW.005 KAB. K E D I R I
1062 1300554204 SAYUTI 29/11/1948 DSN DUNGPUNG RT.014 RW.005 KAB. K E D I R I
1063 1300554207 SUCIATI 13/05/1972 DSN GEDANGAN RT.002 RW.003 KAB. K E D I R I
1064 1300554380 DWIYANTO SETIYONO 14/09/1964 DSN MANGU RT.001 RW.001 KAB. K E D I R I
1065 1300554401 MULYANINGRUM YULIASTUTI 10/07/1968 DSN MANGU RT.001 RW.001 KAB. K E D I R I
1066 1300554424 SULAIMAN 07/06/1953 JL. YOS SUDARSO 39 RT.003 RW.001 KAB. K E D I R I
1067 1300554466 ZULIANI KASANAH 16/11/1975 BENDOSARI RT.005 RW.002 KAB. K E D I R I
1068 1300554474 SHOLIKIN 10/10/1965 JL. KELAPA RT.001 RW.002 KAB. K E D I R I
1069 1300554477 HALIMATUS SA'DIYAH 16/06/1972 DSN DRANGIN RT.001 RW.002 KAB. K E D I R I
1070 1300554479 SUTIKNO 01/07/1964 DSN DRANGIN RT.001 RW.001 KAB. K E D I R I
1071 1300554481 AGUS SUGIHARTO 07/08/1979 DSN BENDOSARI RT.005 RW.002 KAB. K E D I R I
1072 1300554571 ERFIANA PRASETYANINGTYAS 12/06/1971 DSN SAMBIROTO RT.002 RW.001 KAB. K E D I R I
1073 1300554671 SUYATNO 29/09/1960 DSN KWEDEN RT.025 RW.004 KAB. K E D I R I
1074 1300554674 NANIK DWI RETNANI 11/10/1960 DSN KWEDEN RT.025 RW.004 KAB. K E D I R I
1075 1300554682 MUHAMMAD TOHIR 18/02/1949 DSN BRENJUK RT.003 RW.004 KAB. K E D I R I
1076 1300554687 UMI CHABIBAH 08/08/1955 DSN BRENJUK RT.003 RW.004 KAB. K E D I R I
1077 1300554690 BUYUNG SUGIHARTO 19/12/1970 DSN PRAYUNGAN RT.001 RW.002 KAB. K E D I R I
1078 1300554693 HALIM MAHMUDAH 08/08/1976 DSN PRAYUNGAN RT.001 RW.002 KAB. K E D I R I
1079 1300554812 SETIAWAN 10/05/1965 DS. TOYORESMI RT.001 RW.002 KAB. K E D I R I
1080 1300554887 SETYO WIBOWO 19/05/1969 DSN SAMBIROTO RT.002 RW.001 KAB. K E D I R I
1081 1300554919 SUTINAH 15/02/1963 DSN BLABAK RT.003 RW.001 KAB. K E D I R I
1082 1300554924 KOHAR ISMAIL 21/12/1956 DSN BLABAK RT.003 RW.001 KAB. K E D I R I
1083 1300554925 WIDAYATI 31/01/1977 DSN TAWANGREJO RT.002 RW.001 KAB. K E D I R I
1084 1300554929 NURMARHAENI 05/01/1966 DUSUN KRANGGAN RT.003 RW.003 KAB. K E D I R I
1085 1300554930 YASKUR 01/10/1965 DSN TAWANGREJO RT.002 RW.001 KAB. K E D I R I
1086 1300554932 AFANDI, [Link] 11/09/1963 DSN KRANGGAN RT.003 RW.003 KAB. K E D I R I
1087 1300554933 ETIK ISTIANI 18/09/1969 DSN BLABAK RT.003 RW.001 KAB. K E D I R I
1088 1300554935 TUMI 01/07/1959 DSN REMBANG RT.001 RW.006 KAB. K E D I R I
1089 1300554937 ENDANG PURWATI 10/10/1966 JL. MERAK NO.6 RT.004 RW.003 KAB. K E D I R I
1090 1300554968 MUHAIMIN 12/05/1969 DSN. BANARAN RT 01 RW 01 KAB. K E D I R I
1091 1300554990 LILIN RIDARWATI 11/07/1961 TUGUREJO RT.004 RW.005 KAB. K E D I R I
1092 1300554994 DANI AGUNG PRABOWO 22/06/1990 DSN. LUKSONGO RT.004 RW.005 KAB. K E D I R I
1093 1300554997 NURYATI 10/04/1975 DSN BANARAN RT 01 RW 01 KAB. K E D I R I
1094 1300555001 ISBANI 01/01/1970 DSN. KLAMPOKREJO RT.003 RW.019 KAB. K E D I R I
1095 1300555108 SUMARNO, [Link],[Link] 20/02/1972 DSN. NGESONG RT.003 RW.001 KAB. K E D I R I
1096 1300555113 MARJAN 16/12/1943 DSN. SUMBERBENDO RT.003 RW.002 KAB. K E D I R I
1097 1300555115 ZAINAL ARIFIN 01/08/1967 DSN. SAMBIREJO RT.001 RW.001 KAB. K E D I R I
1098 1300555116 SITI KOTIMAH 05/02/1971 DSN SAMBIREJO RT.001 RW.001 KAB. K E D I R I
1099 1300555118 YAYUK AGUSTINA 09/12/1979 DSN. NGESONG RT.003 RW.001 KAB. K E D I R I
1100 1300555263 SUMARSIH 16/12/1961 DSN JAMBU RT 10 RW 02 KAB. K E D I R I
1101 1300555265 WARSIONO 01/11/1959 DSN. JAMBU RT.010 RW.002 KAB. K E D I R I
1102 1300555269 ANISYATI 30/08/1965 DSN. BATUMULYO RT.002 RW.007 KAB. K E D I R I
1103 1300555270 SUBINANTO 29/12/1958 [Link] RT.002 RW.007 KAB. K E D I R I
1104 1300555325 NURHIDAYATI 06/06/1959 DSN. TLUKAN RT.01 RW.03 KAB. K E D I R I
1105 1300555543 SUPARMI 10/04/1959 JL. PUTRA WILIS RT 03 RW 01 KAB. K E D I R I
1106 1300555588 PAINI 10/02/1960 DSN WATES RT.001 RW.015 KAB. K E D I R I
1107 1300555589 MOHAMMAD THOYIB 07/04/1953 DSN WATES RT.001 RW.015 KAB. K E D I R I
1108 1300555611 ANDI RIYANTO 15/10/1980 DSN. MARGOURIP RT.008 RW.002 KAB. K E D I R I
1109 1300555613 YUNIARTI 15/10/1983 SUMBER LUMBU RT 18 RW 05 KAB. K E D I R I
1110 1300555714 ARI HANANI 16/12/1973 JL. GAJAH MADA RT.005 RW.001 KAB. K E D I R I
1111 1300555718 ABDUL QOHAR 01/07/1984 DSN KOLAK SELATAN RT 01 RW 01 KAB. K E D I R I
1112 1300555798 KHOIRIYAH 01/02/1965 DSN PANDAN RT.002 RW.027 KAB. K E D I R I
1113 1300555816 YUWONO 09/04/1952 DSN GALUHAN RT.001 RW.003 KAB. K E D I R I
1114 1300555818 SUPRIATI 12/05/1961 DSN GALUHAN RT.001 RW.003 KAB. K E D I R I
1115 1300555905 SHOLIHAH DJAMIL HJ 22/12/1958 JL JOMBANG RT 01 RW 11 KAB. K E D I R I
1116 1300556017 NURHAYATI 10/11/1967 DSN JARO RT.002 RW.003 KAB. K E D I R I
1117 1300556214 IMAM FATONI 25/01/1951 BALEKAMBANG RT 02 RW 01 KAB. K E D I R I
1118 1300556215 MUNJIDAH 01/12/1958 DSN BALEKAMBANG RT 02 RW 01 KAB. K E D I R I
1119 1300556216 SUPRIHATIN 11/06/1956 BALEKAMBANG RT 02 RW 01 KAB. K E D I R I
1120 1300556612 MUJIATI 01/11/1959 DS TOYORESMI RT.001 RW.002 KAB. K E D I R I
1121 1300556636 MASKURI 03/05/1970 DS. NGEBRAK RT.002 RW.002 KAB. K E D I R I
1122 1300556637 MIRATUNISA 23/10/1975 DSN NGEBRAK RT.002 RW.002 KAB. K E D I R I
1123 1300556648 SUTOYO SISWOMIHARJO 07/08/1957 DSN MORANGAN RT.001 RW.003 KAB. K E D I R I
1124 1300556650 SUSIANI 13/01/1963 DSN MORANGAN RT.001 RW.003 KAB. K E D I R I
1125 1300556688 ABDUL AZIZI 02/12/1946 DSN NGADILOYO RT.05 RW.05 KAB. K E D I R I
1126 1300556738 ISTADI 15/10/1955 DSN BULUSAN RT.002 RW.006 KAB. K E D I R I
1127 1300556750 MUKODAMAH 01/07/1960 JL. SULTAN AGUNG RT.003 RW.002 KAB. K E D I R I
1128 1300556752 MUCHAMAD YUSUF 11/06/1982 JL. SULTAN AGUNG RT.003 RW.002 KAB. K E D I R I
1129 1300556868 MOHAMMAD THOHA EFENDY 13/12/1962 DS. PUTIH RT.001 RW.003 KAB. K E D I R I
1130 1300556983 BUDIONO S. 22/12/1957 DSN BABADAN RT.008 RW.006 KAB. K E D I R I
1131 1300557000 SUYONO 01/06/1961 JL. KRAMAT KS. II RT.003 RW.004 KAB. K E D I R I
1132 1300557006 WINARNI 01/07/1962 JL. PONDOK KS. II RT.003 RW.002 KAB. K E D I R I
1133 1300557146 MARTINGAH, [Link] 19/05/1956 DSN SUMBERDADI RT.010 RW.003 KAB. K E D I R I
1134 1300557675 ASMIASIH, [Link] 01/02/1963 DSN JABON SELATAN RT.004 RW.002 KAB. K E D I R I
1135 1300557704 LAYLIYUHA PANGESTU 22/08/1996 DSN JABON SELATAN RT.004 RW.002 KAB. K E D I R I
1136 1300557729 PATARAH 01/07/1949 DSN JARO RT.001 RW.003 KAB. K E D I R I
1137 1300557816 UMI CHATBIROTIN 19/10/1961 JL. DANDANG GENDIS NO. 675 RT.018 RW.005 KAB. K E D I R I
1138 1300557825 SITI ROISAH 12/04/1952 DSN MERGOSONO RT.003 RW.002 BANYAKAN KAB. K E D I R I
1139 1300557910 MUHAMMAD SRIANTO 27/12/1974 JL. JAKA MUDA RT.001 RW.004 KALIBOTO KAB. K E D I R I
1140 1300557913 ANA LAILIYAH 26/06/1983 JL. PEMUDA RT.001 RW.004 KALIBOTO KAB. K E D I R I
1141 1300557921 MUHAIMIN 05/06/1965 DSN SEMEN RT.006 RW.003 DATENGAN KAB. K E D I R I
1142 1300557923 SITI KHUSNUL KHOTIMAH 20/11/1968 DSN SEMEN RT.006 RW.003 DATENGAN KAB. K E D I R I
1143 1300557933 PONIRAN 05/08/1959 DSN SLUMBUNG RT.001 RW.002 SLUMBUNG KAB. K E D I R I
1144 1300557971 MUDJARI 11/05/1944 DSN PAPAR SELATAN RT.002 RW.006 PAPAR KAB. K E D I R I
1145 1300557981 SUNARTI 07/05/1951 DSN PAPAR SELATAN RT.002 RW.006 PAPAR KAB. K E D I R I
1146 1300557992 SUMARYONO 05/03/1965 JL. DELI RT.001 RW.007 KAB. K E D I R I
1147 1300558009 MU'MININ 02/04/1969 DSN SLUMBUNG RT.001 RW.002 SLUMBUNG KAB. K E D I R I
1148 1300558013 SUMARI 19/09/1955 BLAWE RT.003 RW.001 BLAWE KAB. K E D I R I
1149 1300558018 HARIANI 20/10/1957 JL. PAHLAWAN RT.003 RW.001 BLAWE KAB. K E D I R I
1150 1300558162 SITI MAESYAROH 16/03/1978 PRANGGANG BARAT RT.001 RW.001 PRANGGAN KAB. K E D I R I
1151 1300558164 IMAM MUNAWAR 19/09/1964 PRANGGANG BARAT RT.001 RW.001 PRANGGAN KAB. K E D I R I
1152 1300558172 ZAENAL FATAH, H 17/08/1957 DSN NGEMPLAK RT.001 RW.004 KRANDANG KAB. K E D I R I
1153 1300558175 YATINI 25/03/1975 DSN NGEMPLAK RT.001 RW.004 KRANDANG KAB. K E D I R I
1154 1300558176 SAEROJI 09/05/1969 DSN NGEMPLAK RT.001 RW.004 KRANDANG KAB. K E D I R I
1155 1300558192 MOHAMMAD MATNI 12/12/1965 PRANGGANG BARAT RT.002 RW.001 PRANGGAN KAB. K E D I R I
1156 1300558193 SAMIATUR ROHMI 10/03/1977 DSN PRANGGANG BARAT RT.02RW.01 PRANGGA KAB. K E D I R I
1157 1300558258 KASTIAH 05/06/1965 KUWIK RT.002 RW.004 KUWIK KAB. K E D I R I
1158 1300558262 SUTASIN 01/07/1962 KUWIK RT.002 RW.004 KUWIK KAB. K E D I R I
1159 1300558275 MUKHAYATI 15/07/1972 DSN RINGIN GONG RT.001RW.002 SUMBERAGUN KAB. K E D I R I
1160 1300558300 SUYATINI 18/07/1964 JL. DELI RT.001 RW.007 KAB. K E D I R I
1161 1300558331 KHAMDAN MUSTOFA 12/07/1956 DSN JATIREJO RT.013 RW.003 DAMARWULAN KAB. K E D I R I
1162 1300558421 PURWANINGSIH 06/08/1961 JL. AIRLANGGA V/86 RT.002 RW.002 KATANG KAB. K E D I R I
1163 1300558437 DIDIK SUMARTONO, S.E 03/03/1971 PERUM SUKOREJO INDAH BLK II 12 RT01 RW08 KAB. K E D I R I
1164 1300558440 AMBAR ASIH, [Link] 20/12/1970 PERUM SUKOREJO INDAH II 12 RT.001 RW.008 KAB. K E D I R I
1165 1300558441 MUHAMMAD IRSYAD FU'ADI 11/07/1995 DS. TUGU RT.01 RW.01 KAB. K E D I R I
1166 1300558453 SUHARMAN 04/05/1966 JL. RAYA NO.263 RT.001 RW.001 KRAS KAB. K E D I R I
1167 1300558454 UMI HANIK WIJAYANTI 13/07/1967 JL. RAYA NO.263 RT.001 RW.001 KRAS KAB. K E D I R I
1168 1300558474 SUHARNI 09/10/1953 DSN PANDANSARI RT.001 RW.003 KAB. K E D I R I
1169 1300558475 FEBRI ANANG MUSTOFA 18/02/1998 DS. TUGU RT.01 RW.01 KAB. K E D I R I
1170 1300558541 HARI JUMADIONO 16/09/1960 DSN GENUKWATU RT.001 RW.001 KAB. K E D I R I
1171 1300558545 KHALIMATUS SAKDIYAH 31/12/1962 DSN GENUKWATU RT.001 RW.001 KAB. K E D I R I
1172 1300558606 RUBIYAH 04/09/1952 JL. RAYA RT.003 RW.004 TURUS KAB. K E D I R I
1173 1300558608 JUMI'AN 03/07/1960 JL. RAYA RT.003 RW.004 TURUS KAB. K E D I R I
1174 1300558685 MOHAMAD BAHRUDIN 10/09/1981 DSN PULE SELATAN RT.003 RW.001 PULE KAB. K E D I R I
1175 1300558686 SITI FATIMAH 14/05/1960 DSN PULE SELATAN RT.002 RW.001 PULE KAB. K E D I R I
1176 1300558754 NGATMININGSIH 05/08/1971 DSN MEDOWO RT.005 RW.003 MEDOWO KAB. K E D I R I
1177 1300558756 DJUWARI, [Link] 28/04/1960 DSN MEDOWO RT.005 RW.003 MEDOWO KAB. K E D I R I
1178 1300558925 ABDULLAH 19/03/1975 JL. PAHLAWAN 123 RT.001 RW.002 KETAWANG KAB. K E D I R I
1179 1300558927 TRI WAHYUNI 07/01/1979 JL. PAHLAWAN 123 RT.001 RW.002 KETAWANG KAB. K E D I R I
1202 1300560291 AGUS HARI PURWANTO 20/08/1975 JL. KARANG TARUNA I 129 RT.02RW.02 GURAH KAB. K E D I R I
1203 1300560418 AGUS WAHYUDI 16/08/1974 DSN NGEMPLAK RT.004 RW.003 KRANDANG KAB. K E D I R I
1204 1300560427 SALSABILA NAZLA SAFAKAMILA 11/09/2003 DSN NGEMPLAK RT.004 RW.003 KRANDANG KAB. K E D I R I
1205 1300560432 DWI WAHYUNI 02/06/1981 DSN NGEMPLAK RT.004 RW.003 KRANDANG KAB. K E D I R I
1206 1300560475 FARID KHOIRUL HUDA 25/04/1986 JL. JOYOBOYO 80B BABADAN RT.002 RW.001 KAB. K E D I R I
1207 1300560476 DESY PUTRI PURNAMASARI 05/12/1986 DSN PULE SELATAN RT.002 RW.004 PULE KAB. K E D I R I
1208 1300560480 SOPINGAH 12/10/1947 DSN KASREMAN RT 01 RW 07 KAB. K E D I R I
1209 1300560558 TITIN AGUSTIANI, SH 25/08/1977 DSN KUNJANG LOR RT.003 RW.001 KUNJANG KAB. K E D I R I
1210 1300560559 SUGIYANTO ST. 16/01/1978 DSN KUNJANG LOR RT.002 RW.001 KUNJANG KAB. K E D I R I
1211 1300560695 MAHMUDAH 14/08/1969 DSN KACANGAN RT.001 RW.017 KANDANGAN KAB. K E D I R I
1212 1300560698 SUNARDI 29/12/1958 DSN KACANGAN RT.001 RW.017 KANDANGAN KAB. K E D I R I
1213 1300560727 NGAFIFUDIN 01/07/1958 DS. NGEBRAK RT.001 RW.001 NGEBRAK KAB. K E D I R I
1214 1300560737 MUHAMAD ROMLI 15/07/1977 DSN KACANGAN RT.001 RW.017 KANDANGAN KAB. K E D I R I
1215 1300560759 SUKARYANTO, [Link] 23/02/1970 DSN NGRAJEK RT.011 RW.004 SILIR KAB. K E D I R I
1216 1300560775 ANDARWANTO 14/04/1980 DSN MANGUREJO RT.002 RW.002 BANGKOK KAB. K E D I R I
1217 1300560778 ARI WAHYU PUSPITOSARI 21/12/1979 DSN MANGUREJO RT.002 RW.002 BANGKOK KAB. K E D I R I
1218 1300560881 DRA. ENDANG SUSILOWATI 27/05/1960 SUKOREJO PERMAI D6 KATANG RT.003 RW.006 KAB. K E D I R I
1219 1300560946 ANING NURUL HIDAYATI, [Link] 25/10/1970 DSN NGRAJEK RT.011 RW.004 SILIR KAB. K E D I R I
1220 1300560951 SITI MUNAKICHAH 25/05/1972 DSN DAMARWULAN RT.014 RW.004 DAMARWUL KAB. K E D I R I
1221 1300560960 MUHAMAD MUSLIH 15/04/1968 DSN DAMARWULAN RT.014 RW.004 DAMARWUL KAB. K E D I R I
1222 1300560963 IMAM BUKHORI 02/08/1965 JL. ONGKO WIJOYO RT.001RW.006 GEDANGSEW KAB. K E D I R I
1223 1300560993 SITI AMINAH 01/07/1960 DSN SUMBERAGUNG RT.001 RW.002 SONOREJO KAB. K E D I R I
1224 1300561082 IR. BUDI IRIYANTO 17/11/1957 DSN DADAPAN RT.019 RW.004 SUMBEREJO KAB. K E D I R I
1225 1300561091 SRI ANIK PUJI MURTINI, S.H 20/11/1964 DSN DADAPAN RT.019 RW.004 SUMBEREJO KAB. K E D I R I
1226 1300561147 INDASAH 02/06/1957 DSN BLEBER RT.001 RW.003 BLEBER KAB. K E D I R I
1227 1300561167 KASIR 17/05/1951 JL. KAUMAN RT.002 RW.007 SUMBERJO KAB. K E D I R I
1228 1300561242 SUMARSIH 06/04/1962 DSN TAWANG RT.016 RW.008 TAWANG KAB. K E D I R I
1229 1300561289 ENNY SULISTYOWATI 08/01/1966 JL. TALAUT NO.2 RT.003 RW.012 GEDANGSEWU KAB. K E D I R I
1230 1300561305 SITI AFIFAH 11/12/1981 DSN KRAYAK RT.003 RW.001 JATI KAB. K E D I R I
1231 1300561307 SUDARMADJI, [Link] 07/09/1955 SUKOREJO PERMAI D6 RT.003RW.006 SUKOREJ KAB. K E D I R I
1232 1300561309 AHMAD ROFIQ 11/08/1976 DSN KRAPYAK RT.003 RW.001 JATI KAB. K E D I R I
1233 1300561374 ZULIN ALFARIDA 07/08/1972 DSN JATISARI RT.004 RW.002 KRENCENG KAB. K E D I R I
1234 1300561378 H MOHAMMAD RIFA'I 01/08/1951 DSN JATISARI RT.004 RW.002 KRENCENG KAB. K E D I R I
1235 1300726265 BINTI SAMSIATIN 29/06/1926 DSN DEMANGAN RT.001 RW.004 SETONOREJO KAB. K E D I R I PRIORITAS LANSIA
1236 1300798170 SITI ROHMAH 05/10/1926 DSN TANJUNG RT 03 RW 05 KAB. K E D I R I PRIORITAS LANSIA
1237 1301243648 SITI FATIMAH 01/07/1927 DUSUN SAMBIROTO RT. 001 RW. 001 KAB. K E D I R I PRIORITAS LANSIA
1238 1301203458 OEKIR 13/01/1930 DUSUN SUMBERWANGI 009 003 KAB. K E D I R I PRIORITAS LANSIA
1239 1301231852 UMI KASANAH 12/05/1930 DUSUN BAKALAN LOR RT/RW 007/004 KAB. K E D I R I PRIORITAS LANSIA
1240 1301225549 SEBUL 01/07/1930 DSN KEDAWUNG RT 001 RW 004 KAB. K E D I R I PRIORITAS LANSIA
1241 1301212271 MUSINEM 01/07/1930 DSN BRAMBANG RT 005 RW 003 KAB. K E D I R I PRIORITAS LANSIA
1242 1301045474 SITI DJUWARIYAH 31/12/1930 JL DIPONEGORO RT005/RW006 KAB. K E D I R I PRIORITAS LANSIA
1243 1300593983 MURTI 01/01/1931 DSN DEYENG RT.04 RW.06 DEYENG KAB. K E D I R I PRIORITAS LANSIA
1244 1301216231 PONINGAH 01/07/1931 DSN BATUASIH RT 020 RW 006 KAB. K E D I R I PRIORITAS LANSIA
1245 1300744252 SUJONO MAKRUS 01/08/1931 DSN DEMANGAN RT.003 RW.004 SETONOREJO KAB. K E D I R I PRIORITAS LANSIA
1246 1300824225 DJAMIL 24/03/1932 DSN BUNUT RT.014 RW.005 BRINGIN KAB. K E D I R I PRIORITAS LANSIA
1247 1301257299 MOESIRAN 01/04/1932 JL LAWU LK.I RT. 008 RW. 002 KAB. K E D I R I PRIORITAS LANSIA
1248 1301142568 SODJO 01/07/1932 DSN GEBANGKEREP RT 008 RW 009 KAB. K E D I R I PRIORITAS LANSIA
1249 1300983309 SITI SALAMAH 31/12/1932 JL. RADEN WIJAYA RT.01 RW.01 KWADUNGAN KAB. K E D I R I PRIORITAS LANSIA
1250 1301235911 KINI 09/06/1933 JLN THAMRIN, RT/RW 002/005 KAB. K E D I R I PRIORITAS LANSIA
1251 1301120995 SRI KOBI 01/07/1933 DSN GOGOREJO RT 002 RW 008 KAB. K E D I R I PRIORITAS LANSIA
1252 1301134082 MUSTAMAR 01/07/1933 JL PAHLAWAN DSN BADAL PANDEAN RT 03 RW 0 KAB. K E D I R I PRIORITAS LANSIA
1253 1300955102 SOIMURI 10/08/1933 DSN DAWUNG RT 04/02 BEDUG NGADILUWIH KAB. K E D I R I PRIORITAS LANSIA
1254 1301223395 TARMUDJI 05/03/1934 JATEN RT 031 RW 007 KAB. K E D I R I PRIORITAS LANSIA
1255 1300744952 MARKUS 13/03/1934 DSN DEPOK RT.002 RW.006 PELAS KAB. K E D I R I PRIORITAS LANSIA
1256 1301254024 MUHAMMAD MASJKUR 25/04/1934 DSN JAMBU RT. 001 RW. 008 KAB. K E D I R I PRIORITAS LANSIA
1257 1301170300 SOLEH 01/07/1934 JATIREJO RT 03 RW 02 KAB. K E D I R I PRIORITAS LANSIA
1258 1301098088 AMIRUDIN 01/07/1934 DSN MANYAREJO RT 003 RW 001 KAB. K E D I R I PRIORITAS LANSIA
1259 1300983677 ENNY SOELIJAH 17/08/1934 JL PANJI RT.01 RW.02 DSN PANJI KAB. K E D I R I PRIORITAS LANSIA
1260 1300914805 GUNARTI 15/09/1934 DSN POJOK RT.002 RW.003 KEPUHREJO KAB. K E D I R I PRIORITAS LANSIA
1261 1301068951 MAINAH 01/01/1935 DS NGDILUWIH RT 001 RW 003 KAB. K E D I R I PRIORITAS LANSIA
1262 1301256809 SITI PATIMAH 01/01/1935 JL. KAUMAN DSN. NGAMPEL RT. 003 RW. 003 KAB. K E D I R I PRIORITAS LANSIA
1263 1300860496 SRINI 01/07/1935 DSN TANJANG RT.003 RW.005 PLOSO KAB. K E D I R I PRIORITAS LANSIA
1264 1301054373 MITEN 01/08/1935 JL INKUD DSN KRAJAN RT1 R KAB. K E D I R I PRIORITAS LANSIA
1265 1301239933 SUMARDJI 12/08/1935 SUMBERAGUNG RT 025 RW 006 KAB. K E D I R I PRIORITAS LANSIA
1266 1300876670 SITI AMINAH 08/12/1935 DSN KARANGDORO RT.004 RW.004 BULU KAB. K E D I R I PRIORITAS LANSIA
1267 1300661366 RAMINTEN 31/12/1935 DSN. PESING RT.001 RW.003 KAB. K E D I R I PRIORITAS LANSIA
1268 1301125957 BASTARI 12/02/1936 DSN NGEBRAK RT 002 RW 003 KAB. K E D I R I PRIORITAS LANSIA
1269 1301197820 MASRIKIN 12/02/1936 DSN SANTREN RT 001 RW 002 KAB. K E D I R I PRIORITAS LANSIA
1270 1301078309 SIDIK 17/02/1936 DSN SRIKATON RT 004 RW 001 KAB. K E D I R I PRIORITAS LANSIA
1271 1300939423 MUDAKIR 07/04/1936 DSN BANGSONGAN RT.003 RW.005 BANGSONGA KAB. K E D I R I PRIORITAS LANSIA
1272 1300927829 TUKILAH 07/05/1936 DSN PRANGGANG BARAT RT.002 RW.001 PRANG KAB. K E D I R I PRIORITAS LANSIA
1273 1300977621 RAEKAN 01/07/1936 JANTI 002/005 KAB. K E D I R I PRIORITAS LANSIA
1274 1301058130 KAYAT 01/07/1936 KENCONG TIMUR, 028/006 KAB. K E D I R I PRIORITAS LANSIA
1275 1300580827 SUKINI 01/07/1936 DSN SEMBUNGREJO RT.003 RW.001 DAWUNG KAB. K E D I R I PRIORITAS LANSIA
1276 1300890687 NASITAH 01/07/1936 JL. KH, DEWANTARA RT.003 RW.001 BRINGIN KAB. K E D I R I PRIORITAS LANSIA
1277 1301126050 SRIYATI 06/07/1936 BANYAKAN RT 004 RW 002 KAB. K E D I R I PRIORITAS LANSIA
1278 1300956181 SUNYOTO 25/07/1936 DSN BABAL RT.002 RW.004 NGADI KAB. K E D I R I PRIORITAS LANSIA
1279 1301060970 YAKUP 01/01/1937 DSN KEMBANGSORE RT 005 RW 004 KARANG TA KAB. K E D I R I PRIORITAS LANSIA
1280 1301079126 SAMINU 17/03/1937 KAB. K E D I R I PRIORITAS LANSIA
JL. KEMBANG KUNING DSN NGAMPEL RT 002 RW
1281 1300631005 MASHUDI 06/04/1937 DSN SUMBERSARI RT.19 RW.07 JABANG KAB. K E D I R I PRIORITAS LANSIA
1282 1301061690 D. SOEHARTO 14/04/1937 DS BADAL PANDEAN 002/003 KAB. K E D I R I PRIORITAS LANSIA
1283 1301082868 KOINEM 10/05/1937 JL BEKU II RT 002 RW 004 KAB. K E D I R I PRIORITAS LANSIA
1284 1301209200 ASKUR 01/07/1937 GLAGAHAN RT 001 RW 004 KAB. K E D I R I PRIORITAS LANSIA
1285 1301125507 KUNDIYAH 01/07/1937 DSN BADAS RT 005 RW 009 KAB. K E D I R I PRIORITAS LANSIA
1286 1301148418 SUHADAK 01/07/1937 DSN RINGINREJO RT 03 RW 02 KAB. K E D I R I PRIORITAS LANSIA
1287 1301155345 IM KURDI 01/07/1937 DUSUN JATIREJO RT 004 RW 002 KAB. K E D I R I PRIORITAS LANSIA
1288 1301097660 MARO'AH 01/07/1937 DSN BADAL CIKAL RT 003 RW 004 KAB. K E D I R I PRIORITAS LANSIA
1289 1301167968 ZAENUDIN 05/09/1937 DSN. SUROWONO RT 002 RW 019 KAB. K E D I R I PRIORITAS LANSIA
1290 1301068136 SITI KATMINAH 18/09/1937 DSN SEMUT RT 02 RW 01 KAB. K E D I R I PRIORITAS LANSIA
1291 1300934107 PARIYATEN 01/12/1937 DSN KAMPUNGBARU RT.004 RW.001 KAMPUNGB KAB. K E D I R I PRIORITAS LANSIA
1292 1300785591 SITI NUR JANNAH 31/12/1937 PLOSO RT 03 RW 02 KAB. K E D I R I PRIORITAS LANSIA
1293 1301195941 PONIJAH 01/01/1938 DUUSN DAHU 004 002 6415 KAB. K E D I R I PRIORITAS LANSIA
1294 1300584298 WARSILAH 01/01/1938 JL. BEKU 2 RT.03 RW.03 SEMEN KAB. K E D I R I PRIORITAS LANSIA
1295 1301248159 PONIKEM 07/02/1938 DSN NGESONG RT 002 RW 002 KAB. K E D I R I PRIORITAS LANSIA
1296 1300857706 SITI RUFI'AH 18/02/1938 [Link] RT.004 RW.006 TURUS KAB. K E D I R I PRIORITAS LANSIA
1297 1300948454 TUMIJAN 01/03/1938 JL. WATU IRENG RT.004 RW.004 KANDAT KAB. K E D I R I PRIORITAS LANSIA
1298 1301203768 TUWAJI 29/03/1938 DUSUN JERUK GULUNG 002 001 KAB. K E D I R I PRIORITAS LANSIA
1299 1301169937 TOHA 17/04/1938 JL BROMO RT 01 RW 04 KAB. K E D I R I PRIORITAS LANSIA
1300 1301026106 MUJINAH SUPARTI'AH 11/05/1938 JL CITANDUI 21D RT/RW 002/014 BENDO PARE KAB. K E D I R I PRIORITAS LANSIA
1301 1300561596 MUHAMAD SHOLIK 14/07/1973 JL. MAWAR RT.004 RW.001 MANGGIS KAB. K E D I R I CADANGAN
1302 1300561636 YUDI SUGENG 31/12/1960 JAMBEAN RT.001 RW.002 MANGGIS KAB. K E D I R I CADANGAN
1303 1300561648 SUMIYEM 01/07/1951 JL. MAWAR DS. DOROK RT.003RW.001 MANGGIS KAB. K E D I R I CADANGAN
1304 1300561650 SUKARSIH 17/07/1968 DSN BUMIREJO RT.002 RW.025 KRECEK KAB. K E D I R I CADANGAN
1305 1300561652 SUMIDJAN 12/06/1943 DSN BUMIREJO RT.002 RW.025 KRECEK KAB. K E D I R I CADANGAN
1306 1300561691 MUDJIHARTI 29/01/1958 JL. RAYA 126 RT.002 RW.004 PURWOASRI KAB. K E D I R I CADANGAN
1307 1300561749 BINTORO 04/07/1968 JL. MOJO 14A JOMBANGANRT.1 RW.016 TERTEK KAB. K E D I R I CADANGAN
1308 1300561752 KHOIRUL ASTORINI 22/02/1972 JL. MOJO 14A JOMBANGAN RT.01RW.16 TERTEK KAB. K E D I R I CADANGAN
1309 1300561779 SUWARNI 31/12/1965 JAMBEAN RT.002 RW.002 MANGGIS KAB. K E D I R I CADANGAN
1310 1300561783 H. MOCHAMAD SODIQ 03/01/1942 DSN DOROK RT.03 RW.01 MANGGIS KAB. K E D I R I CADANGAN
1311 1300561830 MOHAMMAD HABIB 08/07/1950 JL. MASJID RT.006 RW.007 GAYAM KAB. K E D I R I CADANGAN
1312 1300561921 HANIK TASNIATI 14/07/1989 DSN KAYUNAN RT.002 RW.002 KAYUNAN KAB. K E D I R I CADANGAN
1313 1300562077 SITI KOTIJAH 07/10/1965 DSN SETONOPUNDUNG RT.001 RW.011 NGADI KAB. K E D I R I CADANGAN
1314 1300562080 SUJIANTO 10/12/1959 DSN SETONOPUNDUNG RT.001 RW.011 NGADI KAB. K E D I R I CADANGAN
1315 1300562136 SUWARNI 15/11/1943 DSN BUTUN 4P RT.46 RW.11 PAGU KAB. K E D I R I CADANGAN
1316 1300562162 SITI HASANAH 12/12/1978 DSN BULUREJO RT.026 RW.007 DAMARWULAN KAB. K E D I R I CADANGAN
1317 1300562165 IMAM BAIDLOWI 12/11/1972 DSN BULUREJO RT.026 RW.007 DAMARWULAN KAB. K E D I R I CADANGAN
1318 1300562292 TEGUH NURHADI 06/07/1970 PLOSOREJO RT.001 RW.006 JANTI KAB. K E D I R I CADANGAN
1319 1300562294 YULIANI 05/07/1973 PLOSOREJO RT.001 RW.006 JANTI KAB. K E D I R I CADANGAN
1320 1300562392 MARJOKO 04/03/1968 JL KARTINI RT.001 RW.001 DOKO KAB. K E D I R I CADANGAN
1321 1300562396 DRA SULASTRI NINGTYAS 15/05/1966 JL. RA. KARTINI RT.001 RW.001 DOKO KAB. K E D I R I CADANGAN
1322 1300562484 SITI SIAMAH 23/01/1964 GROJOGAN RT.005 RW.002 JANTI KAB. K E D I R I CADANGAN
1323 1300562744 LAILA MUNFAIDA 06/05/1958 DSN SUMBERASRI RT.001 RW.001 SONOREJO KAB. K E D I R I CADANGAN
1324 1300562762 IMAM TOHARIN 08/08/1955 DSN SUMBERASRI RT.001 RW.001 SONOREJO KAB. K E D I R I CADANGAN
1325 1300562771 MAHMUDI 18/08/1962 DSN BULUREJO RT.027 RW.007 DAMARWULAN KAB. K E D I R I CADANGAN
1326 1300562777 SUSMIATI 28/04/1970 DSN BULUREJO RT.028 RW.007 DAMARWULAN KAB. K E D I R I CADANGAN
1327 1300562788 MUNTAMAH 01/01/1950 BULUREJO RT.01 RW.03 DAMARWULAN KAB. K E D I R I CADANGAN
1328 1300562840 WAHYU HIDAYATI, [Link] 10/11/1973 DSN JUWAH RT.005 RW.001 SIMAN KAB. K E D I R I CADANGAN
1329 1300562851 SAMSIIN 10/11/1948 DSN PLOSOKEREP RT.001 RW.002 PLOSOREJO KAB. K E D I R I CADANGAN
1330 1300562856 SOLIKHATIN 22/08/1972 JL. BRAWIJAYA RT.008 RW.003 BRINGIN KAB. K E D I R I CADANGAN
1331 1300562858 SRIYANTO 01/12/1965 JL. BRAWIJAYA RT.008 RW.003 BRINGIN KAB. K E D I R I CADANGAN
1332 1300562987 WARIYAH 07/12/1962 DSN MOJOLEGI RT.001 RW.012 BENDO KAB. K E D I R I CADANGAN
1333 1300562989 SUHERI, [Link] 10/05/1961 DSN MOJOLEGI RT.001 RW.012 BENDO KAB. K E D I R I CADANGAN
1334 1300562997 MOHAMMAD NURSHOLEH 21/08/1970 DSN GROMPOL RT.001 RW.002 NGEBRAK KAB. K E D I R I CADANGAN
1335 1300563045 AHMAD DAROINI 11/06/1979 DSN CANGGU RT.002 RW.002 CANGGU KAB. K E D I R I CADANGAN
1336 1300563048 UMI HANIK 06/07/1981 DSN CANGGU RT.002 RW.002 CANGGU KAB. K E D I R I CADANGAN
1337 1300563098 NURYANI 08/07/1982 DS. NGASEM RT.002 RW.001 NGASEM KAB. K E D I R I CADANGAN
1338 1300563104 MASHURI 31/12/1968 DS. NGASEM RT.002 RW.001 NGASEM KAB. K E D I R I CADANGAN
1339 1300563123 SAMSUL ARIFIN 04/10/1964 DSN SENTONOREJO RT.001 RW.011 TAMBIBEND KAB. K E D I R I CADANGAN
1340 1300563127 SRIYANTI 12/01/1972 DSN SENTONOREJO RT.001 RW.011 TAMBIBEND KAB. K E D I R I CADANGAN
1341 1300563131 MARYONO 22/07/1956 TENGGER LOR RT.002 RW.003 TENGGERLOR KAB. K E D I R I CADANGAN
1342 1300563132 SITI UMAYAH, [Link] 25/02/1959 DSN NAMBAKAN RT.002 RW.001 NAMBAKAN KAB. K E D I R I CADANGAN
1343 1300563134 YAYUK SUCIATI 02/06/1966 TENGGER LOR RT.002 RW.003 TENGGER LOR KAB. K E D I R I CADANGAN
1344 1300563137 MUNGIT 08/11/1954 DSN NAMBAKAN RT.002 RW.001 NAMBAKAN KAB. K E D I R I CADANGAN
1345 1300563143 PANIKEM 01/07/1952 DSN MERGOSONO RT.001 RW.002 BANYAKAN KAB. K E D I R I CADANGAN
1346 1300563151 KISTI VIKA ILHAMI 22/08/1984 DSN PURWODADI RT.001 RW.004 PURWODADI KAB. K E D I R I CADANGAN
1347 1300563152 SITI MARCHAMAH 10/11/1955 DSN PURWODADI RT.001 RW.004 PURWODADI KAB. K E D I R I CADANGAN
1348 1300563157 MUHAYYA SHIRVI ABA SYAMSYA 01/01/2003 DSN PURWODADI RT.001 RW.004 PURWODADI KAB. K E D I R I CADANGAN
1349 1300563178 SUTRISNO 04/02/1965 KANDANGAN RT.001 RW.001 PAGU KAB. K E D I R I CADANGAN
1350 1300563183 ENDANG WIDIYATI 15/07/1969 DSN KANDANGAN RT.001 RW.001 PAGU KAB. K E D I R I CADANGAN
1351 1300563459 AGUS MUCHAMAD ISMAIL 23/08/1981 JL. KEDONDONG 15 RT.001 RW.009 PURWOASRI KAB. K E D I R I CADANGAN
1352 1300563464 MUHAMAD ABDUL RAHMAN 10/08/1989 JL. KEDONDONG 15 RT.001 RW.009 PURWOASRI KAB. K E D I R I CADANGAN
1353 1300563466 MISLAN, [Link], MMPD 29/03/1962 DSN KRAS RT.003 RW.002 KRAS KAB. K E D I R I CADANGAN
1354 1300563467 MUDAWAMAH 01/11/1964 KRAS RT.003 RW.002 KRAS KAB. K E D I R I CADANGAN
1355 1300563629 FITRIYATUL ISLAMIYAH 30/06/1977 DSN NGAWINAN RT.001 RW.001 BULU KAB. K E D I R I CADANGAN
1356 1300563638 KAMDANI 06/04/1964 JL. RONDO KUNING RT.001 RW.010 KALIBOTO KAB. K E D I R I CADANGAN
1357 1300563646 RONIATUL ANIFAH 15/01/1973 JL. RONDO KUNING RT.001 RW.010 KALIBOTO KAB. K E D I R I CADANGAN
1358 1300563667 WIWIK INDAYATI, [Link] 10/03/1971 DSN BEDREK SELATAN RT.003 RW.003 GROGOL KAB. K E D I R I CADANGAN
1359 1300563730 SRIPATUN 20/10/1956 DSN SUMBER DLINGO RT.025 RW.005 JOHO KAB. K E D I R I CADANGAN
1360 1300563732 SUPANI 02/09/1952 DSN SUMBER DLINGO RT.025 RW.005 JOHO KAB. K E D I R I CADANGAN
1361 1300563765 SRI SUBEKTI YUNI ASTUTI 23/06/1962 JL. INDRAPURA NO.9 RT.002 RW.01DARUNGAN KAB. K E D I R I CADANGAN
1362 1300563766 RENI ADRIASTUTI, DRA 20/09/1969 DSN KEDUNGDOWO RT.002 RW.009 CENGKOK KAB. K E D I R I CADANGAN
1363 1300563768 NANANG SUKARSONO 17/09/1962 JL. INDRAPURA NO.9 RT.002 RW.001DARUNGAN KAB. K E D I R I CADANGAN
1364 1300563769 NURSUBIANTO, DRS 16/12/1965 DSN KEDUNGDOWO RT.002 RW.009 CENGKOK KAB. K E D I R I CADANGAN
1365 1300563771 NAFIAH 01/07/1958 DSN KAYEN KIDUL RT.001 RW.002KAYEN KIDUL KAB. K E D I R I CADANGAN
1366 1300563772 H. MUHAMAD TOHIR 25/05/1954 DSN KAYEN KIDUL RT.001 RW.002KAYEN KIDUL KAB. K E D I R I CADANGAN
1367 1300564063 MUHADI 24/07/1962 JL. BERINGIN RT.004 RW.006 TAMBAKREJO KAB. K E D I R I CADANGAN
1368 1300564064 SITI MARIYAM 16/06/1974 JL. BERINGIN RT.004 RW.006 TAMBAKREJO KAB. K E D I R I CADANGAN
1369 1300564195 MOH SHUBUR SANTOSO 07/05/1977 DSN PLERINGAN RT.008 RW.003 KRENCENG KAB. K E D I R I CADANGAN
1370 1300564201 SITI UMI KULSUM 22/02/1964 DSN PEHKULON RT.002 RW.002 PEHKULON KAB. K E D I R I CADANGAN
1371 1300564439 BINTI LATIFAH 10/07/1959 DSN KAOTAN RT.001 RW.001 SEMEN KAB. K E D I R I CADANGAN
1372 1300564451 ROMIYATI 01/07/1967 DSN BULUREJO RT.027 RW.007 DAMARWULAN KAB. K E D I R I CADANGAN
1373 1300564454 MARZUQI 05/05/1962 DSN BULUREJO RT.027 RW.007 DAMARWULAN KAB. K E D I R I CADANGAN
1374 1300564457 SUPARTIYAH 20/12/1962 DAMARWULAN RT.003 RW.002 DAMARWULAN KAB. K E D I R I CADANGAN
1375 1300564459 USWATUN KHASANAH, [Link] 14/03/1966 JL. KYAI DOKO RT.010 RW.002 DOKO KAB. K E D I R I CADANGAN
1376 1300564461 DARMAWATI YASMIANAH 29/12/1964 DSN BENDOSARI RT.002 RW.001 BENDOSARI KAB. K E D I R I CADANGAN
1377 1300564462 SHOLICHAN 28/08/1956 DSN BULUREJO RT.032 RW.008 DAMARWULAN KAB. K E D I R I CADANGAN
1378 1300564463 MUJAYANAH, HJ 01/01/1949 DSN BENDOSARI RT.008 RW.003BENDOSARI KAB. K E D I R I CADANGAN
1379 1300564464 HENDYANTO 21/04/1958 DSN BENDOSARI RT.003 RW.001 BENDOSARI KAB. K E D I R I CADANGAN
1380 1300564493 KASMUJI 17/11/1971 DSN BATUMULYO RT.003 RW.007 SIDOMULYO KAB. K E D I R I CADANGAN
1381 1300564494 LINA ROKHMAWATI 21/03/1980 DSN BATUMULYO RT.003 RW.007 SIDOMULYO KAB. K E D I R I CADANGAN
1382 1300564502 MOCHAMAD TUGIANTO 01/07/1966 DSN SENTONOREJO RT.001 RW.007 TAMBIBEND KAB. K E D I R I CADANGAN
1383 1300564504 EMY YULIATI 05/06/1972 DSN SENTONOREJO RT.001 RW.007 TAMBIBEND KAB. K E D I R I CADANGAN
1384 1300564505 SAMILAH 08/09/1950 DSN SILIR RT.006 RW.002 SILIR KAB. K E D I R I CADANGAN
1385 1300564506 SUKARLI 01/09/1956 DSN PULE UTARA RT.001 RW.001 PULE KAB. K E D I R I CADANGAN
1386 1300564507 SITI SAKDIYAH 17/07/1962 DSN PULE UTARA RT.001 RW.001 PULE KAB. K E D I R I CADANGAN
1387 1300564508 KASMARI 10/08/1967 DSN MRANGGEN RT.001 RW.001 MRANGGEN KAB. K E D I R I CADANGAN
1388 1300564509 HANIK HIDAYATI 13/10/1968 DSN MRANGGEN RT.001 RW.001 MRANGGEN KAB. K E D I R I CADANGAN
1389 1300564513 SLAMET SUDARSONO 25/10/1972 DSN BANGSONGAN RT.001 RW.003 BANGSONGA KAB. K E D I R I CADANGAN
1390 1300564611 SITI ASTUTIK 17/08/1978 DSN TURI RT.031 RW.014 JANTI KAB. K E D I R I CADANGAN
1391 1300564614 TUMILAH 01/07/1967 DSN TURI RT.031 RW.014 JANTI KAB. K E D I R I CADANGAN
1392 1300564672 SUGIANTO 04/11/1972 SAMBIREJO RT.005 RW.002 SAMBIREJO KAB. K E D I R I CADANGAN
1393 1300564677 ABDUL WACHID EFENDI 01/03/1949 DSN SAMBIROTO RT.020 RW.010 JUGO KAB. K E D I R I CADANGAN
1394 1300564685 ABU HAFIDH 30/12/1964 JL. ANGGREK RINGINREJO RT.001 RW.002 KAB. K E D I R I CADANGAN
1395 1300564690 LILIK NURYATI 23/09/1978 SAMBIREJO RT.005 RW.002 SAMBIREJO KAB. K E D I R I CADANGAN
1396 1300564716 NUR YAIM 03/07/1968 DSN KELING RT.007 RW.002 KELING KAB. K E D I R I CADANGAN
1397 1300564724 FARIDA HJ 01/07/1971 DSN KELING RT.002 RW.001 KELING KAB. K E D I R I CADANGAN
1398 1300564957 KUSWATIN 09/06/1976 DSN BORO KIDUL RT.006 RW.002 SUKOMORO KAB. K E D I R I CADANGAN
1399 1300564958 SURATIN 23/05/1968 DSN BORO KIDUL RT.006 RW.002 SUKOMORO KAB. K E D I R I CADANGAN
1400 1300565043 PRIHATINING DYAH M. 26/08/1967 DSN BUKAAN RT.024 RW.005 KELING KAB. K E D I R I CADANGAN
1401 1300565045 ASTUTI 10/01/1958 DSN BUKAAN RT.024 RW.005 KELING KAB. K E D I R I CADANGAN
1402 1300565050 ADENG BUDOYO 10/10/1970 JL. JABANG PELAS RT.004 RW.001 JEMEKAN KAB. K E D I R I CADANGAN
1403 1300565051 WAHYUNI NURHAYATI 26/04/1975 DSN JEMEKAN BARAT RT.004 RW.001 JEMEKAN KAB. K E D I R I CADANGAN
1404 1300565064 EDY SUNYOTO 10/01/1965 JL. RAYA RT.003 RW.004 TURUS KAB. K E D I R I CADANGAN
1405 1300565074 SUKONO 20/03/1952 PUHSARANG RT.001 RW.001 PUHSARANG KAB. K E D I R I CADANGAN
1406 1300565077 ENDANG PURWANTI 15/06/1962 DSN NGADILUWIH RT.004 RW.001 NGADILUWIH KAB. K E D I R I CADANGAN
1407 1300565078 SITI MAEMONAH 01/07/1956 PUHSARANG RT.001 RW.001 PUHSARANG KAB. K E D I R I CADANGAN
1408 1300565079 ASTONO KARIADI 05/05/1960 DSN BUKAAN RT.024 RW.005 KELING KAB. K E D I R I CADANGAN
1409 1300565086 SOEYONO 22/09/1957 DSN NGADILUWIH RT.004 RW.001 NGDILUWIH KAB. K E D I R I CADANGAN
1410 1300565090 HJ. YATIPAH 03/09/1951 JL. KARANG TARUNA 3 RT.001 RW.002 GURAH KAB. K E D I R I CADANGAN
1411 1300565092 MADENUR 08/01/1960 JL. BINTAN I RT.001 RW.009 KAB. K E D I R I CADANGAN
1412 1300565101 IMSAKAH 20/10/1959 JL. BINTAN I RT.001 RW.009 PELEM KAB. K E D I R I CADANGAN